Wetterdaten: Sonntag, 09.01.2022
Datum Zeit Temp. Aussen Temp. o. S. Temp +5cm Feuchte Auss Luftdruck Regen Sonnenschein Regendauer Solar Windben Empfang
09.01.2022 00:00 3,8 C 2,8 C 1,7 C 97 % 989,6 hPa 0,0 l/m 0 min 2 min 0 W/m 22,5 km/h (4 Bft) 95,74 %
09.01.2022 00:02 3,8 C 2,8 C 1,7 C 97 % 989,5 hPa 0,0 l/m 0 min 2 min 0 W/m 22,5 km/h (4 Bft) 78,05 %
09.01.2022 00:04 3,8 C 2,8 C 1,7 C 97 % 989,5 hPa 0,2 l/m 0 min 2 min 0 W/m 25,7 km/h (4 Bft) 53,57 %
09.01.2022 00:08 3,8 C 2,8 C 1,7 C 97 % 989,4 hPa 0,0 l/m 0 min 4 min 0 W/m 19,3 km/h (3 Bft) 93,62 %
09.01.2022 00:10 3,8 C 2,8 C 1,7 C 97 % 989,3 hPa 0,2 l/m 0 min 2 min 0 W/m 16,1 km/h (3 Bft) 95,74 %
09.01.2022 00:12 3,8 C 2,8 C 1,7 C 97 % 989,2 hPa 0,0 l/m 0 min 2 min 0 W/m 25,7 km/h (4 Bft) 93,62 %
09.01.2022 00:14 3,8 C 2,8 C 1,7 C 97 % 989,2 hPa 0,0 l/m 0 min 2 min 0 W/m 22,5 km/h (4 Bft) 97,83 %
09.01.2022 00:16 3,8 C 3,3 C 1,7 C 97 % 989,3 hPa 0,0 l/m 0 min 2 min 0 W/m 22,5 km/h (4 Bft) 97,87 %
09.01.2022 00:18 3,8 C 2,8 C 1,7 C 97 % 989,3 hPa 0,0 l/m 0 min 2 min 0 W/m 19,3 km/h (3 Bft) 97,87 %
09.01.2022 00:20 3,8 C 2,8 C 1,7 C 97 % 989,2 hPa 0,0 l/m 0 min 2 min 0 W/m 29,0 km/h (5 Bft) 97,87 %
09.01.2022 00:22 3,8 C 2,8 C 1,7 C 97 % 989,2 hPa 0,0 l/m 0 min 2 min 0 W/m 25,7 km/h (4 Bft) 97,87 %
09.01.2022 00:24 3,8 C 2,8 C 1,7 C 97 % 989,2 hPa 0,2 l/m 0 min 2 min 0 W/m 19,3 km/h (3 Bft) 97,83 %
09.01.2022 00:26 3,8 C 2,8 C 1,7 C 97 % 989,1 hPa 0,0 l/m 0 min 2 min 0 W/m 22,5 km/h (4 Bft) 95,74 %
09.01.2022 00:28 3,8 C 2,8 C 1,7 C 97 % 989,1 hPa 0,0 l/m 0 min 2 min 0 W/m 22,5 km/h (4 Bft) 97,87 %
09.01.2022 00:30 3,8 C 3,3 C 1,7 C 97 % 989,0 hPa 0,0 l/m 0 min 2 min 0 W/m 22,5 km/h (4 Bft) 95,74 %
09.01.2022 00:32 3,8 C 3,3 C 1,7 C 97 % 988,9 hPa 0,2 l/m 0 min 2 min 0 W/m 25,7 km/h (4 Bft) 97,87 %
09.01.2022 00:34 3,8 C 2,8 C 1,7 C 97 % 988,9 hPa 0,0 l/m 0 min 2 min 0 W/m 22,5 km/h (4 Bft) 91,49 %
09.01.2022 00:36 3,8 C 2,8 C 1,7 C 97 % 989,0 hPa 0,0 l/m 0 min 2 min 0 W/m 29,0 km/h (5 Bft) 97,83 %
09.01.2022 00:38 3,8 C 2,8 C 1,7 C 97 % 988,9 hPa 0,0 l/m 0 min 2 min 0 W/m 19,3 km/h (3 Bft) 97,87 %
09.01.2022 00:40 3,8 C 2,8 C 1,7 C 97 % 988,8 hPa 0,0 l/m 0 min 2 min 0 W/m 25,7 km/h (4 Bft) 97,87 %
09.01.2022 00:42 3,8 C 3,3 C 1,7 C 97 % 988,8 hPa 0,0 l/m 0 min 0 min 0 W/m 29,0 km/h (5 Bft) 97,87 %
09.01.2022 00:44 3,8 C 3,3 C 1,7 C 97 % 988,8 hPa 0,0 l/m 0 min 2 min 0 W/m 19,3 km/h (3 Bft) 93,62 %
09.01.2022 00:46 3,8 C 3,3 C 1,7 C 97 % 988,8 hPa 0,2 l/m 0 min 2 min 0 W/m 25,7 km/h (4 Bft) 93,75 %
09.01.2022 00:48 3,8 C 3,3 C 1,7 C 97 % 988,8 hPa 0,0 l/m 0 min 2 min 0 W/m 16,1 km/h (3 Bft) 97,83 %
09.01.2022 00:50 3,8 C 3,3 C 2,2 C 97 % 988,8 hPa 0,0 l/m 0 min 2 min 0 W/m 22,5 km/h (4 Bft) 97,87 %
09.01.2022 00:52 3,8 C 3,3 C 2,2 C 97 % 988,7 hPa 0,0 l/m 0 min 2 min 0 W/m 22,5 km/h (4 Bft) 97,87 %
09.01.2022 00:54 3,8 C 3,3 C 2,2 C 97 % 988,7 hPa 0,2 l/m 0 min 2 min 0 W/m 22,5 km/h (4 Bft) 93,62 %
09.01.2022 00:56 3,8 C 3,3 C 2,2 C 97 % 988,6 hPa 0,0 l/m 0 min 2 min 0 W/m 16,1 km/h (3 Bft) 97,87 %
09.01.2022 00:58 3,8 C 3,3 C 2,2 C 97 % 988,6 hPa 0,0 l/m 0 min 2 min 0 W/m 19,3 km/h (3 Bft) 97,87 %
09.01.2022 01:00 3,8 C 3,3 C 2,2 C 97 % 988,6 hPa 0,2 l/m 0 min 2 min 0 W/m 25,7 km/h (4 Bft) 97,83 %
09.01.2022 01:02 3,8 C 3,3 C 2,2 C 97 % 988,6 hPa 0,0 l/m 0 min 2 min 0 W/m 16,1 km/h (3 Bft) 95,74 %
09.01.2022 01:04 3,8 C 3,3 C 2,2 C 97 % 988,6 hPa 0,0 l/m 0 min 2 min 0 W/m 12,9 km/h (3 Bft) 97,87 %
09.01.2022 01:06 3,8 C 3,3 C 2,2 C 97 % 988,4 hPa 0,2 l/m 0 min 2 min 0 W/m 19,3 km/h (3 Bft) 97,87 %
09.01.2022 01:08 3,8 C 3,3 C 2,2 C 97 % 988,4 hPa 0,0 l/m 0 min 2 min 0 W/m 19,3 km/h (3 Bft) 97,87 %
09.01.2022 01:10 3,8 C 3,3 C 2,2 C 97 % 988,4 hPa 0,0 l/m 0 min 2 min 0 W/m 16,1 km/h (3 Bft) 97,87 %
09.01.2022 01:12 3,9 C 3,3 C 2,2 C 97 % 988,4 hPa 0,0 l/m 0 min 2 min 0 W/m 16,1 km/h (3 Bft) 97,83 %
09.01.2022 01:14 3,9 C 3,3 C 2,2 C 97 % 988,4 hPa 0,0 l/m 0 min 2 min 0 W/m 22,5 km/h (4 Bft) 97,87 %
09.01.2022 01:16 3,8 C 3,3 C 2,2 C 97 % 988,3 hPa 0,2 l/m 0 min 2 min 0 W/m 19,3 km/h (3 Bft) 97,87 %
09.01.2022 01:18 3,8 C 3,3 C 2,2 C 97 % 988,2 hPa 0,0 l/m 0 min 2 min 0 W/m 25,7 km/h (4 Bft) 97,87 %
09.01.2022 01:20 3,9 C 3,3 C 2,2 C 97 % 988,4 hPa 0,0 l/m 0 min 2 min 0 W/m 19,3 km/h (3 Bft) 100,00 %
09.01.2022 01:22 3,9 C 3,3 C 2,2 C 97 % 988,3 hPa 0,0 l/m 0 min 2 min 0 W/m 16,1 km/h (3 Bft) 97,87 %
09.01.2022 01:24 3,9 C 3,3 C 2,2 C 97 % 988,4 hPa 0,2 l/m 0 min 2 min 0 W/m 19,3 km/h (3 Bft) 100,00 %
09.01.2022 01:26 3,9 C 3,3 C 2,2 C 97 % 988,3 hPa 0,0 l/m 0 min 2 min 0 W/m 12,9 km/h (3 Bft) 100,00 %
09.01.2022 01:28 3,9 C 3,3 C 2,2 C 97 % 988,3 hPa 0,0 l/m 0 min 2 min 0 W/m 22,5 km/h (4 Bft) 97,87 %
09.01.2022 01:30 3,8 C 3,3 C 2,2 C 97 % 988,3 hPa 0,0 l/m 0 min 2 min 0 W/m 16,1 km/h (3 Bft) 100,00 %
09.01.2022 01:32 3,9 C 3,3 C 2,2 C 97 % 988,3 hPa 0,2 l/m 0 min 2 min 0 W/m 22,5 km/h (4 Bft) 97,87 %
09.01.2022 01:34 3,9 C 3,3 C 2,2 C 97 % 988,3 hPa 0,0 l/m 0 min 2 min 0 W/m 19,3 km/h (3 Bft) 100,00 %
09.01.2022 01:36 3,8 C 3,3 C 2,2 C 97 % 988,2 hPa 0,0 l/m 0 min 2 min 0 W/m 19,3 km/h (3 Bft) 100,00 %
09.01.2022 01:38 3,9 C 3,3 C 2,2 C 97 % 988,3 hPa 0,2 l/m 0 min 2 min 0 W/m 19,3 km/h (3 Bft) 100,00 %
09.01.2022 01:40 3,9 C 3,3 C 2,2 C 97 % 988,2 hPa 0,0 l/m 0 min 2 min 0 W/m 16,1 km/h (3 Bft) 100,00 %
09.01.2022 01:42 3,9 C 3,3 C 2,2 C 97 % 988,3 hPa 0,0 l/m 0 min 2 min 0 W/m 12,9 km/h (3 Bft) 100,00 %
09.01.2022 01:44 3,9 C 3,3 C 2,2 C 97 % 988,2 hPa 0,2 l/m 0 min 2 min 0 W/m 16,1 km/h (3 Bft) 97,87 %
09.01.2022 01:46 3,9 C 3,3 C 2,2 C 98 % 988,2 hPa 0,0 l/m 0 min 2 min 0 W/m 16,1 km/h (3 Bft) 97,87 %
09.01.2022 01:48 3,9 C 3,3 C 2,2 C 98 % 988,2 hPa 0,0 l/m 0 min 2 min 0 W/m 19,3 km/h (3 Bft) 100,00 %
09.01.2022 01:50 3,9 C 3,3 C 2,2 C 98 % 988,2 hPa 0,0 l/m 0 min 2 min 0 W/m 19,3 km/h (3 Bft) 97,87 %
09.01.2022 01:52 3,9 C 3,3 C 2,2 C 98 % 988,2 hPa 0,2 l/m 0 min 2 min 0 W/m 12,9 km/h (3 Bft) 100,00 %
09.01.2022 01:54 3,9 C 3,3 C 2,2 C 98 % 988,2 hPa 0,0 l/m 0 min 2 min 0 W/m 12,9 km/h (3 Bft) 100,00 %
09.01.2022 01:56 3,9 C 3,3 C 2,2 C 98 % 988,2 hPa 0,0 l/m 0 min 2 min 0 W/m 16,1 km/h (3 Bft) 95,74 %
09.01.2022 01:58 3,9 C 3,3 C 2,2 C 98 % 988,1 hPa 0,0 l/m 0 min 2 min 0 W/m 12,9 km/h (3 Bft) 100,00 %
09.01.2022 02:00 3,9 C 3,3 C 2,2 C 97 % 988,1 hPa 0,0 l/m 0 min 2 min 0 W/m 12,9 km/h (3 Bft) 95,65 %
09.01.2022 02:02 3,9 C 3,3 C 2,2 C 97 % 988,1 hPa 0,2 l/m 0 min 2 min 0 W/m 12,9 km/h (3 Bft) 47,37 %
09.01.2022 02:04 3,9 C 3,3 C 2,2 C 97 % 988,1 hPa 0,0 l/m 0 min 2 min 0 W/m 16,1 km/h (3 Bft) 93,62 %
09.01.2022 02:06 3,9 C 3,3 C 2,2 C 98 % 988,1 hPa 0,0 l/m 0 min 2 min 0 W/m 12,9 km/h (3 Bft) 97,87 %
09.01.2022 02:08 3,9 C 3,3 C 2,2 C 98 % 988,1 hPa 0,0 l/m 0 min 2 min 0 W/m 16,1 km/h (3 Bft) 97,87 %
09.01.2022 02:10 4,0 C 3,3 C 2,2 C 98 % 988,1 hPa 0,2 l/m 0 min 2 min 0 W/m 12,9 km/h (3 Bft) 95,74 %
09.01.2022 02:12 4,0 C 3,3 C 2,2 C 98 % 988,1 hPa 0,0 l/m 0 min 2 min 0 W/m 12,9 km/h (3 Bft) 97,83 %
09.01.2022 02:14 4,0 C 3,3 C 2,2 C 98 % 988,2 hPa 0,0 l/m 0 min 2 min 0 W/m 12,9 km/h (3 Bft) 97,87 %
09.01.2022 02:16 4,0 C 3,3 C 2,2 C 98 % 988,2 hPa 0,2 l/m 0 min 2 min 0 W/m 9,7 km/h (2 Bft) 97,87 %
09.01.2022 02:18 4,1 C 3,3 C 2,2 C 98 % 988,2 hPa 0,0 l/m 0 min 2 min 0 W/m 12,9 km/h (3 Bft) 97,87 %
09.01.2022 02:20 4,1 C 3,3 C 2,2 C 98 % 988,2 hPa 0,0 l/m 0 min 2 min 0 W/m 12,9 km/h (3 Bft) 97,87 %
09.01.2022 02:22 4,1 C 3,3 C 2,2 C 98 % 988,2 hPa 0,0 l/m 0 min 2 min 0 W/m 3,2 km/h (1 Bft) 95,65 %
09.01.2022 02:24 4,1 C 3,3 C 2,2 C 98 % 988,3 hPa 0,2 l/m 0 min 2 min 0 W/m 6,4 km/h (2 Bft) 97,87 %
09.01.2022 02:27 4,1 C 3,3 C 2,2 C 98 % 988,4 hPa 0,0 l/m 0 min 3 min 0 W/m 6,4 km/h (2 Bft) 98,59 %
09.01.2022 02:28 4,1 C 3,3 C 2,2 C 98 % 988,4 hPa 0,0 l/m 0 min 1 min 0 W/m 6,4 km/h (2 Bft) 95,65 %
09.01.2022 02:30 4,1 C 3,3 C 2,2 C 98 % 988,4 hPa 0,0 l/m 0 min 2 min 0 W/m 3,2 km/h (1 Bft) 97,87 %
09.01.2022 02:32 4,1 C 3,3 C 2,2 C 98 % 988,5 hPa 0,0 l/m 0 min 2 min 0 W/m 6,4 km/h (2 Bft) 97,87 %
09.01.2022 02:34 4,1 C 3,3 C 2,8 C 98 % 988,5 hPa 0,0 l/m 0 min 2 min 0 W/m 6,4 km/h (2 Bft) 97,83 %
09.01.2022 02:36 4,2 C 3,3 C 2,8 C 98 % 988,6 hPa 0,2 l/m 0 min 2 min 0 W/m 3,2 km/h (1 Bft) 95,74 %
09.01.2022 02:38 4,2 C 3,3 C 2,8 C 98 % 988,7 hPa 0,0 l/m 0 min 2 min 0 W/m 3,2 km/h (1 Bft) 95,74 %
09.01.2022 02:40 4,2 C 3,9 C 2,8 C 98 % 988,8 hPa 0,0 l/m 0 min 2 min 0 W/m 6,4 km/h (2 Bft) 95,74 %
09.01.2022 02:42 4,2 C 3,9 C 2,8 C 98 % 988,8 hPa 0,0 l/m 0 min 2 min 0 W/m 3,2 km/h (1 Bft) 97,87 %
09.01.2022 02:44 4,3 C 3,9 C 2,8 C 98 % 988,8 hPa 0,2 l/m 0 min 2 min 0 W/m 12,9 km/h (3 Bft) 97,87 %
09.01.2022 02:46 4,4 C 3,9 C 2,8 C 98 % 988,9 hPa 0,0 l/m 0 min 2 min 0 W/m 6,4 km/h (2 Bft) 97,83 %
09.01.2022 02:48 4,4 C 3,9 C 2,8 C 98 % 989,0 hPa 0,0 l/m 0 min 2 min 0 W/m 6,4 km/h (2 Bft) 97,87 %
09.01.2022 02:50 4,5 C 3,9 C 2,8 C 98 % 989,1 hPa 0,0 l/m 0 min 2 min 0 W/m 6,4 km/h (2 Bft) 97,87 %
09.01.2022 02:52 4,6 C 3,9 C 2,8 C 98 % 989,2 hPa 0,2 l/m 0 min 2 min 0 W/m 12,9 km/h (3 Bft) 93,62 %
09.01.2022 02:54 4,6 C 3,9 C 2,8 C 98 % 989,2 hPa 0,0 l/m 0 min 2 min 0 W/m 16,1 km/h (3 Bft) 100,00 %
09.01.2022 02:56 4,6 C 3,9 C 2,8 C 98 % 989,2 hPa 0,2 l/m 0 min 2 min 0 W/m 22,5 km/h (4 Bft) 97,87 %
09.01.2022 02:58 4,7 C 3,9 C 2,8 C 98 % 989,3 hPa 0,0 l/m 0 min 2 min 0 W/m 22,5 km/h (4 Bft) 95,65 %
09.01.2022 03:00 4,7 C 3,9 C 2,8 C 98 % 989,4 hPa 0,0 l/m 0 min 2 min 0 W/m 19,3 km/h (3 Bft) 95,74 %
09.01.2022 03:02 4,7 C 3,9 C 2,8 C 98 % 989,8 hPa 0,2 l/m 0 min 2 min 0 W/m 22,5 km/h (4 Bft) 91,49 %
09.01.2022 03:04 4,7 C 3,9 C 2,8 C 98 % 989,8 hPa 0,2 l/m 0 min 2 min 0 W/m 35,4 km/h (5 Bft) 95,74 %
09.01.2022 03:06 4,7 C 3,9 C 2,8 C 98 % 989,6 hPa 0,0 l/m 0 min 2 min 0 W/m 35,4 km/h (5 Bft) 97,87 %
09.01.2022 03:08 4,7 C 3,9 C 2,8 C 98 % 989,7 hPa 0,0 l/m 0 min 2 min 0 W/m 29,0 km/h (5 Bft) 95,74 %
09.01.2022 03:10 4,7 C 3,9 C 2,8 C 98 % 989,7 hPa 0,2 l/m 0 min 2 min 0 W/m 29,0 km/h (5 Bft) 93,48 %
09.01.2022 03:12 4,7 C 3,9 C 2,8 C 98 % 989,9 hPa 0,0 l/m 0 min 2 min 0 W/m 22,5 km/h (4 Bft) 95,74 %
09.01.2022 03:14 4,7 C 3,9 C 2,8 C 98 % 990,1 hPa 0,2 l/m 0 min 2 min 0 W/m 38,6 km/h (5 Bft) 97,87 %
09.01.2022 03:16 4,7 C 3,9 C 2,8 C 98 % 990,0 hPa 0,0 l/m 0 min 2 min 0 W/m 38,6 km/h (5 Bft) 95,74 %
09.01.2022 03:18 4,7 C 3,9 C 2,8 C 98 % 990,1 hPa 0,2 l/m 0 min 2 min 0 W/m 41,8 km/h (6 Bft) 97,87 %
09.01.2022 03:20 4,7 C 3,9 C 2,8 C 98 % 990,1 hPa 0,2 l/m 0 min 2 min 0 W/m 32,2 km/h (5 Bft) 95,74 %
09.01.2022 03:22 4,7 C 3,9 C 2,8 C 98 % 990,1 hPa 0,0 l/m 0 min 2 min 0 W/m 25,7 km/h (4 Bft) 97,83 %
09.01.2022 03:24 4,7 C 3,9 C 2,8 C 98 % 990,3 hPa 0,0 l/m 0 min 2 min 0 W/m 22,5 km/h (4 Bft) 97,87 %
09.01.2022 03:26 4,6 C 3,9 C 2,8 C 98 % 990,4 hPa 0,2 l/m 0 min 2 min 0 W/m 38,6 km/h (5 Bft) 95,74 %
09.01.2022 03:28 4,6 C 3,9 C 2,8 C 98 % 990,4 hPa 0,2 l/m 0 min 2 min 0 W/m 29,0 km/h (5 Bft) 97,87 %
09.01.2022 03:30 4,6 C 3,9 C 2,8 C 98 % 990,6 hPa 0,0 l/m 0 min 2 min 0 W/m 48,3 km/h (6 Bft) 97,87 %
09.01.2022 03:32 4,6 C 3,9 C 2,8 C 98 % 990,6 hPa 0,2 l/m 0 min 2 min 0 W/m 29,0 km/h (5 Bft) 95,65 %
09.01.2022 03:34 4,6 C 3,9 C 2,8 C 98 % 990,8 hPa 0,0 l/m 0 min 2 min 0 W/m 29,0 km/h (5 Bft) 97,87 %
09.01.2022 03:36 4,6 C 3,9 C 2,8 C 97 % 990,7 hPa 0,2 l/m 0 min 2 min 0 W/m 35,4 km/h (5 Bft) 95,74 %
09.01.2022 03:38 4,6 C 3,9 C 2,8 C 97 % 990,7 hPa 0,0 l/m 0 min 2 min 0 W/m 35,4 km/h (5 Bft) 97,87 %
09.01.2022 03:40 4,6 C 3,9 C 2,8 C 97 % 990,9 hPa 0,0 l/m 0 min 2 min 0 W/m 41,8 km/h (6 Bft) 97,87 %
09.01.2022 03:42 4,6 C 3,9 C 2,8 C 97 % 991,0 hPa 0,2 l/m 0 min 2 min 0 W/m 35,4 km/h (5 Bft) 97,87 %
09.01.2022 03:44 4,6 C 3,9 C 2,8 C 97 % 991,0 hPa 0,0 l/m 0 min 2 min 0 W/m 29,0 km/h (5 Bft) 97,87 %
09.01.2022 03:46 4,7 C 3,9 C 2,8 C 97 % 991,2 hPa 0,0 l/m 0 min 2 min 0 W/m 29,0 km/h (5 Bft) 100,00 %
09.01.2022 03:48 4,7 C 3,9 C 2,8 C 97 % 991,1 hPa 0,2 l/m 0 min 2 min 0 W/m 29,0 km/h (5 Bft) 100,00 %
09.01.2022 03:50 4,7 C 3,9 C 2,8 C 97 % 991,2 hPa 0,0 l/m 0 min 2 min 0 W/m 22,5 km/h (4 Bft) 100,00 %
09.01.2022 03:52 4,7 C 3,9 C 2,8 C 97 % 991,2 hPa 0,0 l/m 0 min 2 min 0 W/m 19,3 km/h (3 Bft) 100,00 %
09.01.2022 03:54 4,7 C 3,9 C 2,8 C 97 % 991,6 hPa 0,0 l/m 0 min 2 min 0 W/m 32,2 km/h (5 Bft) 97,87 %
09.01.2022 03:56 4,7 C 3,9 C 2,8 C 97 % 991,3 hPa 0,0 l/m 0 min 2 min 0 W/m 22,5 km/h (4 Bft) 100,00 %
09.01.2022 03:58 4,7 C 3,9 C 2,8 C 97 % 991,4 hPa 0,2 l/m 0 min 2 min 0 W/m 29,0 km/h (5 Bft) 97,87 %
09.01.2022 04:00 4,8 C 3,9 C 2,8 C 97 % 991,4 hPa 0,0 l/m 0 min 2 min 0 W/m 25,7 km/h (4 Bft) 97,87 %
09.01.2022 04:05 4,8 C 3,9 C 2,8 C 97 % 991,4 hPa 0,0 l/m 0 min 5 min 0 W/m 22,5 km/h (4 Bft) 40,00 %
09.01.2022 04:06 4,8 C 4,4 C 2,8 C 97 % 991,4 hPa 0,0 l/m 0 min 1 min 0 W/m 12,9 km/h (3 Bft) 16,67 %
09.01.2022 04:08 4,9 C 4,4 C 2,8 C 97 % 991,5 hPa 0,2 l/m 0 min 2 min 0 W/m 22,5 km/h (4 Bft) 97,50 %
09.01.2022 04:10 4,9 C 4,4 C 3,3 C 97 % 991,5 hPa 0,0 l/m 0 min 2 min 0 W/m 22,5 km/h (4 Bft) 95,74 %
09.01.2022 04:12 4,9 C 4,4 C 3,3 C 97 % 991,6 hPa 0,0 l/m 0 min 2 min 0 W/m 19,3 km/h (3 Bft) 100,00 %
09.01.2022 04:14 4,9 C 4,4 C 3,3 C 97 % 991,6 hPa 0,0 l/m 0 min 2 min 0 W/m 25,7 km/h (4 Bft) 100,00 %
09.01.2022 04:16 4,9 C 4,4 C 3,3 C 97 % 991,7 hPa 0,0 l/m 0 min 2 min 0 W/m 38,6 km/h (5 Bft) 100,00 %
09.01.2022 04:18 5,0 C 4,4 C 3,3 C 97 % 991,8 hPa 0,0 l/m 0 min 2 min 0 W/m 35,4 km/h (5 Bft) 100,00 %
09.01.2022 04:20 5,0 C 4,4 C 3,3 C 97 % 991,9 hPa 0,0 l/m 0 min 2 min 0 W/m 35,4 km/h (5 Bft) 100,00 %
09.01.2022 04:22 5,0 C 4,4 C 3,3 C 97 % 992,0 hPa 0,0 l/m 0 min 2 min 0 W/m 25,7 km/h (4 Bft) 97,87 %
09.01.2022 04:24 5,0 C 4,4 C 3,3 C 97 % 992,0 hPa 0,0 l/m 0 min 2 min 0 W/m 54,7 km/h (7 Bft) 100,00 %
09.01.2022 04:26 5,1 C 4,4 C 3,3 C 97 % 992,1 hPa 0,0 l/m 0 min 2 min 0 W/m 32,2 km/h (5 Bft) 95,74 %
09.01.2022 04:28 5,1 C 4,4 C 3,3 C 97 % 992,0 hPa 0,0 l/m 0 min 2 min 0 W/m 45,1 km/h (6 Bft) 97,87 %
09.01.2022 04:30 5,1 C 4,4 C 3,3 C 97 % 992,1 hPa 0,0 l/m 0 min 2 min 0 W/m 25,7 km/h (4 Bft) 100,00 %
09.01.2022 04:32 5,1 C 4,4 C 3,3 C 97 % 992,2 hPa 0,0 l/m 0 min 2 min 0 W/m 22,5 km/h (4 Bft) 97,83 %
09.01.2022 04:34 5,1 C 4,4 C 3,3 C 97 % 992,4 hPa 0,2 l/m 0 min 2 min 0 W/m 22,5 km/h (4 Bft) 97,87 %
09.01.2022 04:36 5,1 C 4,4 C 3,3 C 97 % 992,5 hPa 0,2 l/m 0 min 2 min 0 W/m 19,3 km/h (3 Bft) 97,87 %
09.01.2022 04:38 5,1 C 4,4 C 3,3 C 97 % 992,4 hPa 0,0 l/m 0 min 2 min 0 W/m 45,1 km/h (6 Bft) 95,74 %
09.01.2022 04:40 5,0 C 3,9 C 3,3 C 97 % 992,5 hPa 0,2 l/m 0 min 2 min 0 W/m 38,6 km/h (5 Bft) 95,74 %
09.01.2022 04:42 4,9 C 3,9 C 3,3 C 97 % 992,5 hPa 0,2 l/m 0 min 2 min 0 W/m 32,2 km/h (5 Bft) 91,49 %
09.01.2022 04:44 4,9 C 3,9 C 3,3 C 97 % 992,6 hPa 0,0 l/m 0 min 2 min 0 W/m 45,1 km/h (6 Bft) 95,65 %
09.01.2022 04:46 4,9 C 3,9 C 2,8 C 97 % 992,6 hPa 0,2 l/m 0 min 2 min 0 W/m 29,0 km/h (5 Bft) 95,74 %
09.01.2022 04:48 4,8 C 3,9 C 2,8 C 96 % 992,6 hPa 0,2 l/m 0 min 2 min 0 W/m 51,5 km/h (7 Bft) 95,74 %
09.01.2022 04:50 4,8 C 3,9 C 2,8 C 96 % 992,7 hPa 0,0 l/m 0 min 2 min 0 W/m 38,6 km/h (5 Bft) 93,62 %
09.01.2022 04:52 4,7 C 3,9 C 2,8 C 96 % 992,7 hPa 0,0 l/m 0 min 2 min 0 W/m 25,7 km/h (4 Bft) 95,74 %
09.01.2022 04:54 4,7 C 3,9 C 2,8 C 96 % 992,8 hPa 0,0 l/m 0 min 2 min 0 W/m 16,1 km/h (3 Bft) 95,74 %
09.01.2022 04:56 4,8 C 3,9 C 2,8 C 96 % 992,8 hPa 0,0 l/m 0 min 0 min 0 W/m 9,7 km/h (2 Bft) 95,65 %
09.01.2022 04:58 4,8 C 3,9 C 2,8 C 96 % 992,9 hPa 0,0 l/m 0 min 2 min 0 W/m 19,3 km/h (3 Bft) 95,74 %
09.01.2022 05:00 4,8 C 3,9 C 2,8 C 96 % 993,1 hPa 0,0 l/m 0 min 2 min 0 W/m 9,7 km/h (2 Bft) 95,74 %
09.01.2022 05:02 4,8 C 3,9 C 3,3 C 96 % 993,1 hPa 0,0 l/m 0 min 2 min 0 W/m 12,9 km/h (3 Bft) 93,62 %
09.01.2022 05:04 4,8 C 3,9 C 3,3 C 97 % 993,2 hPa 0,0 l/m 0 min 2 min 0 W/m 16,1 km/h (3 Bft) 95,74 %
09.01.2022 05:06 4,9 C 3,9 C 3,3 C 97 % 993,2 hPa 0,2 l/m 0 min 2 min 0 W/m 12,9 km/h (3 Bft) 95,74 %
09.01.2022 05:08 4,9 C 4,4 C 3,3 C 97 % 993,1 hPa 0,0 l/m 0 min 2 min 0 W/m 16,1 km/h (3 Bft) 95,65 %
09.01.2022 05:10 5,0 C 4,4 C 3,3 C 97 % 993,2 hPa 0,0 l/m 0 min 2 min 0 W/m 19,3 km/h (3 Bft) 97,87 %
09.01.2022 05:12 5,0 C 4,4 C 3,3 C 97 % 993,3 hPa 0,0 l/m 0 min 2 min 0 W/m 9,7 km/h (2 Bft) 97,87 %
09.01.2022 05:14 5,1 C 4,4 C 3,3 C 97 % 993,3 hPa 0,0 l/m 0 min 0 min 0 W/m 19,3 km/h (3 Bft) 95,74 %
09.01.2022 05:16 5,1 C 4,4 C 3,3 C 97 % 993,3 hPa 0,0 l/m 0 min 0 min 0 W/m 16,1 km/h (3 Bft) 100,00 %
09.01.2022 05:18 5,1 C 4,4 C 3,3 C 97 % 993,3 hPa 0,0 l/m 0 min 0 min 0 W/m 25,7 km/h (4 Bft) 100,00 %
09.01.2022 05:20 5,1 C 4,4 C 3,3 C 97 % 993,4 hPa 0,2 l/m 0 min 0 min 0 W/m 19,3 km/h (3 Bft) 100,00 %
09.01.2022 05:22 5,2 C 4,4 C 3,3 C 97 % 993,5 hPa 0,0 l/m 0 min 0 min 0 W/m 25,7 km/h (4 Bft) 97,87 %
09.01.2022 05:24 5,2 C 4,4 C 3,3 C 97 % 993,6 hPa 0,0 l/m 0 min 0 min 0 W/m 16,1 km/h (3 Bft) 97,87 %
09.01.2022 05:26 5,2 C 4,4 C 3,3 C 97 % 993,6 hPa 0,0 l/m 0 min 0 min 0 W/m 19,3 km/h (3 Bft) 97,87 %
09.01.2022 05:28 5,2 C 4,4 C 3,3 C 97 % 993,6 hPa 0,0 l/m 0 min 0 min 0 W/m 16,1 km/h (3 Bft) 100,00 %
09.01.2022 05:30 5,2 C 4,4 C 3,3 C 97 % 993,6 hPa 0,0 l/m 0 min 0 min 0 W/m 25,7 km/h (4 Bft) 100,00 %
09.01.2022 05:32 5,2 C 4,4 C 3,3 C 97 % 993,7 hPa 0,0 l/m 0 min 0 min 0 W/m 22,5 km/h (4 Bft) 100,00 %
09.01.2022 05:34 5,2 C 4,4 C 3,3 C 97 % 993,9 hPa 0,0 l/m 0 min 0 min 0 W/m 19,3 km/h (3 Bft) 100,00 %
09.01.2022 05:36 5,2 C 4,4 C 3,3 C 97 % 993,9 hPa 0,0 l/m 0 min 0 min 0 W/m 25,7 km/h (4 Bft) 100,00 %
09.01.2022 05:38 5,2 C 4,4 C 3,3 C 97 % 993,9 hPa 0,0 l/m 0 min 2 min 0 W/m 19,3 km/h (3 Bft) 100,00 %
09.01.2022 05:40 5,2 C 4,4 C 3,3 C 97 % 994,0 hPa 0,0 l/m 0 min 2 min 0 W/m 38,6 km/h (5 Bft) 100,00 %
09.01.2022 05:42 5,2 C 4,4 C 3,3 C 97 % 994,1 hPa 0,0 l/m 0 min 0 min 0 W/m 22,5 km/h (4 Bft) 97,87 %
09.01.2022 05:44 5,2 C 4,4 C 3,3 C 97 % 994,1 hPa 0,0 l/m 0 min 0 min 0 W/m 25,7 km/h (4 Bft) 100,00 %
09.01.2022 05:46 5,2 C 4,4 C 3,3 C 97 % 994,2 hPa 0,0 l/m 0 min 0 min 0 W/m 19,3 km/h (3 Bft) 100,00 %
09.01.2022 05:48 5,2 C 4,4 C 3,3 C 97 % 994,3 hPa 0,0 l/m 0 min 0 min 0 W/m 22,5 km/h (4 Bft) 100,00 %
09.01.2022 05:50 5,2 C 4,4 C 3,3 C 97 % 994,3 hPa 0,0 l/m 0 min 0 min 0 W/m 29,0 km/h (5 Bft) 100,00 %
09.01.2022 05:52 5,2 C 4,4 C 3,3 C 97 % 994,5 hPa 0,0 l/m 0 min 0 min 0 W/m 22,5 km/h (4 Bft) 97,87 %
09.01.2022 05:54 5,2 C 4,4 C 3,3 C 97 % 994,5 hPa 0,0 l/m 0 min 0 min 0 W/m 19,3 km/h (3 Bft) 100,00 %
09.01.2022 05:56 5,2 C 4,4 C 3,3 C 97 % 994,5 hPa 0,0 l/m 0 min 0 min 0 W/m 45,1 km/h (6 Bft) 97,87 %
09.01.2022 05:58 5,2 C 4,4 C 3,3 C 97 % 994,5 hPa 0,0 l/m 0 min 0 min 0 W/m 25,7 km/h (4 Bft) 97,87 %
09.01.2022 06:00 5,1 C 4,4 C 3,3 C 97 % 994,5 hPa 0,0 l/m 0 min 0 min 0 W/m 25,7 km/h (4 Bft) 97,87 %
09.01.2022 06:02 5,1 C 4,4 C 3,3 C 97 % 994,8 hPa 0,0 l/m 0 min 0 min 0 W/m 29,0 km/h (5 Bft) 95,74 %
09.01.2022 06:04 5,1 C 4,4 C 3,3 C 96 % 994,7 hPa 0,0 l/m 0 min 0 min 0 W/m 22,5 km/h (4 Bft) 97,87 %
09.01.2022 06:06 5,1 C 4,4 C 3,3 C 96 % 994,8 hPa 0,0 l/m 0 min 0 min 0 W/m 22,5 km/h (4 Bft) 97,83 %
09.01.2022 06:08 5,1 C 4,4 C 3,3 C 96 % 995,0 hPa 0,0 l/m 0 min 0 min 0 W/m 25,7 km/h (4 Bft) 95,74 %
09.01.2022 06:10 5,1 C 4,4 C 3,3 C 96 % 995,0 hPa 0,0 l/m 0 min 0 min 0 W/m 22,5 km/h (4 Bft) 93,62 %
09.01.2022 06:12 5,1 C 4,4 C 3,3 C 96 % 995,0 hPa 0,0 l/m 0 min 0 min 0 W/m 22,5 km/h (4 Bft) 95,74 %
09.01.2022 06:14 5,0 C 4,4 C 3,3 C 96 % 995,0 hPa 0,0 l/m 0 min 0 min 0 W/m 16,1 km/h (3 Bft) 97,87 %
09.01.2022 06:16 5,0 C 4,4 C 3,3 C 96 % 995,1 hPa 0,0 l/m 0 min 0 min 0 W/m 12,9 km/h (3 Bft) 45,95 %
09.01.2022 06:18 5,0 C 4,4 C 3,3 C 96 % 995,2 hPa 0,0 l/m 0 min 0 min 0 W/m 19,3 km/h (3 Bft) 95,65 %
09.01.2022 06:20 5,0 C 4,4 C 3,3 C 96 % 995,3 hPa 0,0 l/m 0 min 0 min 0 W/m 19,3 km/h (3 Bft) 97,87 %
09.01.2022 06:22 5,0 C 4,4 C 3,3 C 96 % 995,3 hPa 0,0 l/m 0 min 0 min 0 W/m 19,3 km/h (3 Bft) 95,74 %
09.01.2022 06:24 4,9 C 4,4 C 3,3 C 96 % 995,3 hPa 0,0 l/m 0 min 0 min 0 W/m 22,5 km/h (4 Bft) 97,87 %
09.01.2022 06:26 4,9 C 4,4 C 3,3 C 96 % 995,4 hPa 0,0 l/m 0 min 0 min 0 W/m 22,5 km/h (4 Bft) 97,87 %
09.01.2022 06:28 4,9 C 4,4 C 3,3 C 96 % 995,4 hPa 0,0 l/m 0 min 0 min 0 W/m 16,1 km/h (3 Bft) 97,87 %
09.01.2022 06:30 4,9 C 4,4 C 2,8 C 96 % 995,5 hPa 0,0 l/m 0 min 0 min 0 W/m 16,1 km/h (3 Bft) 93,48 %
09.01.2022 06:32 4,9 C 4,4 C 2,8 C 96 % 995,6 hPa 0,0 l/m 0 min 0 min 0 W/m 25,7 km/h (4 Bft) 93,62 %
09.01.2022 06:34 4,9 C 4,4 C 2,8 C 96 % 995,7 hPa 0,0 l/m 0 min 0 min 0 W/m 22,5 km/h (4 Bft) 95,74 %
09.01.2022 06:36 4,9 C 4,4 C 2,8 C 96 % 995,7 hPa 0,0 l/m 0 min 0 min 0 W/m 22,5 km/h (4 Bft) 95,74 %
09.01.2022 06:38 4,9 C 4,4 C 2,8 C 96 % 995,7 hPa 0,0 l/m 0 min 0 min 0 W/m 35,4 km/h (5 Bft) 93,62 %
09.01.2022 06:40 4,9 C 4,4 C 2,8 C 96 % 995,8 hPa 0,0 l/m 0 min 0 min 0 W/m 22,5 km/h (4 Bft) 95,74 %
09.01.2022 06:42 4,9 C 4,4 C 2,8 C 95 % 995,9 hPa 0,0 l/m 0 min 0 min 0 W/m 22,5 km/h (4 Bft) 93,48 %
09.01.2022 06:44 4,9 C 4,4 C 2,8 C 95 % 996,0 hPa 0,0 l/m 0 min 0 min 0 W/m 16,1 km/h (3 Bft) 93,62 %
09.01.2022 06:46 4,9 C 4,4 C 2,8 C 95 % 995,9 hPa 0,0 l/m 0 min 0 min 0 W/m 19,3 km/h (3 Bft) 95,74 %
09.01.2022 06:48 4,9 C 4,4 C 2,8 C 95 % 996,1 hPa 0,0 l/m 0 min 0 min 0 W/m 29,0 km/h (5 Bft) 93,62 %
09.01.2022 06:50 4,9 C 4,4 C 2,8 C 95 % 996,1 hPa 0,0 l/m 0 min 0 min 0 W/m 22,5 km/h (4 Bft) 95,74 %
09.01.2022 06:52 4,9 C 4,4 C 2,8 C 95 % 996,2 hPa 0,0 l/m 0 min 0 min 0 W/m 19,3 km/h (3 Bft) 93,62 %
09.01.2022 06:54 4,9 C 4,4 C 2,8 C 95 % 996,2 hPa 0,0 l/m 0 min 0 min 0 W/m 22,5 km/h (4 Bft) 97,83 %
09.01.2022 06:56 4,9 C 4,4 C 2,8 C 95 % 996,2 hPa 0,0 l/m 0 min 0 min 0 W/m 22,5 km/h (4 Bft) 97,87 %
09.01.2022 06:58 4,9 C 4,4 C 2,8 C 95 % 996,2 hPa 0,0 l/m 0 min 0 min 0 W/m 22,5 km/h (4 Bft) 93,62 %
09.01.2022 07:00 4,9 C 4,4 C 2,8 C 95 % 996,2 hPa 0,0 l/m 0 min 0 min 0 W/m 16,1 km/h (3 Bft) 97,87 %
09.01.2022 07:02 4,9 C 4,4 C 2,8 C 95 % 996,3 hPa 0,0 l/m 0 min 0 min 0 W/m 22,5 km/h (4 Bft) 95,74 %
09.01.2022 07:04 4,9 C 4,4 C 2,8 C 95 % 996,4 hPa 0,0 l/m 0 min 0 min 0 W/m 19,3 km/h (3 Bft) 97,83 %
09.01.2022 07:06 4,9 C 4,4 C 2,8 C 95 % 996,4 hPa 0,0 l/m 0 min 0 min 0 W/m 19,3 km/h (3 Bft) 97,87 %
09.01.2022 07:08 4,9 C 4,4 C 2,8 C 95 % 996,4 hPa 0,0 l/m 0 min 0 min 0 W/m 22,5 km/h (4 Bft) 97,87 %
09.01.2022 07:10 4,9 C 4,4 C 2,8 C 94 % 996,5 hPa 0,0 l/m 0 min 0 min 0 W/m 16,1 km/h (3 Bft) 95,74 %
09.01.2022 07:12 4,8 C 4,4 C 2,8 C 94 % 996,5 hPa 0,0 l/m 0 min 0 min 0 W/m 19,3 km/h (3 Bft) 97,87 %
09.01.2022 07:14 4,8 C 3,9 C 2,8 C 94 % 996,5 hPa 0,0 l/m 0 min 0 min 0 W/m 16,1 km/h (3 Bft) 97,87 %
09.01.2022 07:16 4,8 C 3,9 C 2,8 C 94 % 996,5 hPa 0,0 l/m 0 min 0 min 0 W/m 16,1 km/h (3 Bft) 97,87 %
09.01.2022 07:18 4,8 C 3,9 C 2,8 C 94 % 996,6 hPa 0,0 l/m 0 min 0 min 0 W/m 29,0 km/h (5 Bft) 97,83 %
09.01.2022 07:20 4,8 C 3,9 C 2,8 C 94 % 996,7 hPa 0,0 l/m 0 min 0 min 0 W/m 16,1 km/h (3 Bft) 97,87 %
09.01.2022 07:22 4,8 C 3,9 C 2,8 C 94 % 996,6 hPa 0,0 l/m 0 min 0 min 0 W/m 19,3 km/h (3 Bft) 97,87 %
09.01.2022 07:24 4,8 C 3,9 C 2,8 C 94 % 996,8 hPa 0,0 l/m 0 min 0 min 0 W/m 16,1 km/h (3 Bft) 97,87 %
09.01.2022 07:26 4,8 C 3,9 C 2,8 C 94 % 996,7 hPa 0,0 l/m 0 min 0 min 0 W/m 19,3 km/h (3 Bft) 95,74 %
09.01.2022 07:28 4,7 C 3,9 C 2,8 C 94 % 996,7 hPa 0,0 l/m 0 min 0 min 0 W/m 12,9 km/h (3 Bft) 95,65 %
09.01.2022 07:30 4,7 C 3,9 C 2,8 C 94 % 996,8 hPa 0,0 l/m 0 min 0 min 0 W/m 16,1 km/h (3 Bft) 97,87 %
09.01.2022 07:32 4,7 C 3,9 C 2,8 C 94 % 996,9 hPa 0,0 l/m 0 min 0 min 0 W/m 22,5 km/h (4 Bft) 93,62 %
09.01.2022 07:34 4,7 C 3,9 C 2,8 C 94 % 996,9 hPa 0,0 l/m 0 min 0 min 0 W/m 12,9 km/h (3 Bft) 97,87 %
09.01.2022 07:36 4,7 C 3,9 C 2,8 C 94 % 996,9 hPa 0,0 l/m 0 min 0 min 0 W/m 35,4 km/h (5 Bft) 95,74 %
09.01.2022 07:38 4,7 C 3,9 C 2,8 C 94 % 997,0 hPa 0,0 l/m 0 min 0 min 0 W/m 25,7 km/h (4 Bft) 97,87 %
09.01.2022 07:40 4,7 C 3,9 C 2,8 C 94 % 997,0 hPa 0,0 l/m 0 min 0 min 0 W/m 22,5 km/h (4 Bft) 100,00 %
09.01.2022 07:42 4,7 C 3,9 C 2,8 C 94 % 997,0 hPa 0,0 l/m 0 min 0 min 0 W/m 25,7 km/h (4 Bft) 97,87 %
09.01.2022 07:44 4,7 C 3,9 C 2,8 C 93 % 997,1 hPa 0,0 l/m 0 min 0 min 0 W/m 22,5 km/h (4 Bft) 100,00 %
09.01.2022 07:46 4,7 C 3,9 C 2,8 C 93 % 997,1 hPa 0,0 l/m 0 min 0 min 0 W/m 19,3 km/h (3 Bft) 100,00 %
09.01.2022 07:48 4,7 C 3,9 C 2,2 C 93 % 997,2 hPa 0,0 l/m 0 min 0 min 0 W/m 22,5 km/h (4 Bft) 100,00 %
09.01.2022 07:50 4,6 C 3,9 C 2,2 C 93 % 997,3 hPa 0,0 l/m 0 min 0 min 0 W/m 16,1 km/h (3 Bft) 100,00 %
09.01.2022 07:52 4,6 C 3,9 C 2,2 C 93 % 997,4 hPa 0,0 l/m 0 min 0 min 0 W/m 19,3 km/h (3 Bft) 100,00 %
09.01.2022 07:54 4,6 C 3,9 C 2,2 C 93 % 997,4 hPa 0,0 l/m 0 min 0 min 0 W/m 19,3 km/h (3 Bft) 100,00 %
09.01.2022 07:56 4,6 C 3,9 C 2,2 C 93 % 997,3 hPa 0,0 l/m 0 min 0 min 0 W/m 19,3 km/h (3 Bft) 100,00 %
09.01.2022 07:58 4,6 C 3,9 C 2,2 C 93 % 997,5 hPa 0,0 l/m 0 min 0 min 0 W/m 19,3 km/h (3 Bft) 100,00 %
09.01.2022 08:00 4,6 C 3,9 C 2,2 C 93 % 997,5 hPa 0,0 l/m 0 min 0 min 0 W/m 16,1 km/h (3 Bft) 100,00 %
09.01.2022 08:02 4,6 C 3,9 C 2,2 C 93 % 997,5 hPa 0,0 l/m 0 min 0 min 0 W/m 16,1 km/h (3 Bft) 100,00 %
09.01.2022 08:04 4,6 C 3,9 C 2,2 C 93 % 997,6 hPa 0,0 l/m 0 min 0 min 0 W/m 9,7 km/h (2 Bft) 100,00 %
09.01.2022 08:06 4,6 C 3,9 C 2,2 C 93 % 997,6 hPa 0,0 l/m 0 min 0 min 0 W/m 16,1 km/h (3 Bft) 100,00 %
09.01.2022 08:08 4,6 C 3,9 C 2,2 C 93 % 997,6 hPa 0,0 l/m 0 min 0 min 0 W/m 12,9 km/h (3 Bft) 97,87 %
09.01.2022 08:10 4,6 C 3,9 C 2,2 C 93 % 997,7 hPa 0,0 l/m 0 min 0 min 0 W/m 16,1 km/h (3 Bft) 97,87 %
09.01.2022 08:12 4,6 C 3,9 C 2,2 C 93 % 997,7 hPa 0,0 l/m 0 min 0 min 0 W/m 16,1 km/h (3 Bft) 100,00 %
09.01.2022 08:14 4,6 C 3,9 C 2,2 C 94 % 997,7 hPa 0,0 l/m 0 min 0 min 0 W/m 12,9 km/h (3 Bft) 97,87 %
09.01.2022 08:16 4,6 C 3,9 C 2,2 C 94 % 997,8 hPa 0,0 l/m 0 min 0 min 0 W/m 12,9 km/h (3 Bft) 100,00 %
09.01.2022 08:18 4,6 C 3,9 C 2,2 C 94 % 997,8 hPa 0,0 l/m 0 min 0 min 0 W/m 16,1 km/h (3 Bft) 100,00 %
09.01.2022 08:20 4,6 C 3,9 C 2,2 C 94 % 997,9 hPa 0,0 l/m 0 min 0 min 0 W/m 12,9 km/h (3 Bft) 100,00 %
09.01.2022 08:22 4,6 C 3,9 C 2,2 C 94 % 997,9 hPa 0,0 l/m 0 min 0 min 0 W/m 6,4 km/h (2 Bft) 100,00 %
09.01.2022 08:24 4,5 C 3,9 C 2,2 C 94 % 997,9 hPa 0,0 l/m 0 min 0 min 0 W/m 9,7 km/h (2 Bft) 97,87 %
09.01.2022 08:26 4,5 C 3,9 C 2,2 C 94 % 998,0 hPa 0,0 l/m 0 min 0 min 0 W/m 25,7 km/h (4 Bft) 97,87 %
09.01.2022 08:28 4,5 C 3,9 C 2,2 C 94 % 998,0 hPa 0,0 l/m 0 min 0 min 0 W/m 22,5 km/h (4 Bft) 100,00 %
09.01.2022 08:30 4,5 C 3,9 C 2,2 C 94 % 998,1 hPa 0,0 l/m 0 min 0 min 0 W/m 19,3 km/h (3 Bft) 100,00 %
09.01.2022 08:32 4,4 C 3,9 C 2,2 C 94 % 998,1 hPa 0,0 l/m 0 min 0 min 0 W/m 19,3 km/h (3 Bft) 100,00 %
09.01.2022 08:34 4,4 C 3,9 C 2,2 C 94 % 998,1 hPa 0,0 l/m 0 min 0 min 0 W/m 22,5 km/h (4 Bft) 95,74 %
09.01.2022 08:36 4,4 C 3,9 C 2,2 C 94 % 998,2 hPa 0,0 l/m 0 min 0 min 0 W/m 29,0 km/h (5 Bft) 97,87 %
09.01.2022 08:38 4,4 C 3,9 C 2,2 C 94 % 998,2 hPa 0,0 l/m 0 min 0 min 0 W/m 16,1 km/h (3 Bft) 97,87 %
09.01.2022 08:40 4,4 C 3,9 C 2,2 C 94 % 998,2 hPa 0,0 l/m 0 min 0 min 0 W/m 12,9 km/h (3 Bft) 95,65 %
09.01.2022 08:42 4,4 C 3,9 C 2,2 C 94 % 998,2 hPa 0,0 l/m 0 min 0 min 0 W/m 12,9 km/h (3 Bft) 97,87 %
09.01.2022 08:44 4,4 C 3,9 C 2,2 C 94 % 998,3 hPa 0,0 l/m 0 min 0 min 0 W/m 19,3 km/h (3 Bft) 100,00 %
09.01.2022 08:46 4,4 C 3,9 C 2,2 C 94 % 998,3 hPa 0,0 l/m 0 min 0 min 0 W/m 16,1 km/h (3 Bft) 95,74 %
09.01.2022 08:48 4,4 C 3,9 C 2,2 C 94 % 998,4 hPa 0,0 l/m 0 min 0 min 4 W/m 12,9 km/h (3 Bft) 97,87 %
09.01.2022 08:50 4,4 C 3,9 C 2,2 C 94 % 998,4 hPa 0,0 l/m 0 min 0 min 5 W/m 16,1 km/h (3 Bft) 97,87 %
09.01.2022 08:52 4,4 C 3,9 C 2,2 C 94 % 998,5 hPa 0,0 l/m 0 min 0 min 6 W/m 12,9 km/h (3 Bft) 97,83 %
09.01.2022 08:54 4,4 C 3,9 C 2,2 C 94 % 998,5 hPa 0,0 l/m 0 min 0 min 7 W/m 16,1 km/h (3 Bft) 100,00 %
09.01.2022 08:56 4,4 C 3,9 C 2,2 C 94 % 998,5 hPa 0,0 l/m 0 min 0 min 7 W/m 16,1 km/h (3 Bft) 100,00 %
09.01.2022 08:58 4,4 C 3,9 C 2,2 C 93 % 998,6 hPa 0,0 l/m 0 min 0 min 8 W/m 12,9 km/h (3 Bft) 100,00 %
09.01.2022 09:00 4,3 C 3,9 C 2,2 C 93 % 998,5 hPa 0,0 l/m 0 min 0 min 9 W/m 16,1 km/h (3 Bft) 97,87 %
09.01.2022 09:02 4,3 C 3,9 C 2,2 C 93 % 998,7 hPa 0,0 l/m 0 min 0 min 11 W/m 12,9 km/h (3 Bft) 97,87 %
09.01.2022 09:04 4,3 C 3,9 C 2,2 C 93 % 998,7 hPa 0,0 l/m 0 min 0 min 12 W/m 16,1 km/h (3 Bft) 100,00 %
09.01.2022 09:06 4,3 C 3,9 C 2,2 C 93 % 998,7 hPa 0,0 l/m 0 min 0 min 12 W/m 22,5 km/h (4 Bft) 97,87 %
09.01.2022 09:08 4,3 C 3,9 C 2,2 C 93 % 998,7 hPa 0,0 l/m 0 min 0 min 14 W/m 16,1 km/h (3 Bft) 97,87 %
09.01.2022 09:10 4,3 C 3,9 C 2,2 C 93 % 998,7 hPa 0,0 l/m 0 min 0 min 17 W/m 19,3 km/h (3 Bft) 100,00 %
09.01.2022 09:12 4,3 C 3,9 C 2,2 C 93 % 998,8 hPa 0,0 l/m 0 min 0 min 18 W/m 22,5 km/h (4 Bft) 97,87 %
09.01.2022 09:14 4,3 C 3,9 C 2,2 C 93 % 998,8 hPa 0,0 l/m 0 min 0 min 20 W/m 22,5 km/h (4 Bft) 97,83 %
09.01.2022 09:16 4,3 C 3,9 C 2,2 C 93 % 998,8 hPa 0,0 l/m 0 min 0 min 19 W/m 22,5 km/h (4 Bft) 91,49 %
09.01.2022 09:18 4,3 C 3,9 C 2,2 C 93 % 998,8 hPa 0,0 l/m 0 min 0 min 21 W/m 25,7 km/h (4 Bft) 95,74 %
09.01.2022 09:20 4,4 C 3,9 C 2,2 C 93 % 999,0 hPa 0,0 l/m 0 min 0 min 24 W/m 19,3 km/h (3 Bft) 57,45 %
09.01.2022 09:22 4,4 C 3,9 C 2,2 C 93 % 999,0 hPa 0,0 l/m 0 min 0 min 24 W/m 19,3 km/h (3 Bft) 93,18 %
09.01.2022 09:24 4,3 C 3,9 C 2,2 C 93 % 998,9 hPa 0,0 l/m 0 min 0 min 23 W/m 12,9 km/h (3 Bft) 93,62 %
09.01.2022 09:26 4,3 C 3,9 C 2,2 C 93 % 999,0 hPa 0,0 l/m 0 min 0 min 24 W/m 19,3 km/h (3 Bft) 95,65 %
09.01.2022 09:28 4,3 C 3,9 C 2,2 C 93 % 999,0 hPa 0,0 l/m 0 min 0 min 26 W/m 16,1 km/h (3 Bft) 93,62 %
09.01.2022 09:32 4,4 C 3,9 C 2,2 C 93 % 999,1 hPa 0,0 l/m 0 min 0 min 20 W/m 12,9 km/h (3 Bft) 95,24 %
09.01.2022 09:34 4,4 C 3,9 C 2,2 C 93 % 999,1 hPa 0,0 l/m 0 min 0 min 17 W/m 19,3 km/h (3 Bft) 95,74 %
09.01.2022 09:36 4,4 C 3,9 C 2,2 C 93 % 999,1 hPa 0,0 l/m 0 min 0 min 14 W/m 12,9 km/h (3 Bft) 91,49 %
09.01.2022 09:38 4,4 C 3,9 C 2,2 C 93 % 999,2 hPa 0,0 l/m 0 min 0 min 16 W/m 19,3 km/h (3 Bft) 95,74 %
09.01.2022 09:40 4,4 C 3,9 C 2,2 C 93 % 999,2 hPa 0,0 l/m 0 min 0 min 18 W/m 12,9 km/h (3 Bft) 95,65 %
09.01.2022 09:42 4,4 C 3,9 C 2,2 C 93 % 999,2 hPa 0,0 l/m 0 min 0 min 21 W/m 12,9 km/h (3 Bft) 95,74 %
09.01.2022 09:44 4,4 C 3,9 C 2,2 C 93 % 999,2 hPa 0,0 l/m 0 min 0 min 24 W/m 16,1 km/h (3 Bft) 93,62 %
09.01.2022 09:46 4,5 C 3,9 C 2,2 C 93 % 999,3 hPa 0,0 l/m 0 min 0 min 32 W/m 16,1 km/h (3 Bft) 93,62 %
09.01.2022 09:48 4,5 C 3,9 C 2,2 C 93 % 999,3 hPa 0,0 l/m 0 min 0 min 37 W/m 12,9 km/h (3 Bft) 95,74 %
09.01.2022 09:50 4,4 C 3,9 C 2,2 C 93 % 999,3 hPa 0,0 l/m 0 min 0 min 36 W/m 6,4 km/h (2 Bft) 95,74 %
09.01.2022 09:52 4,4 C 3,9 C 2,2 C 93 % 999,4 hPa 0,0 l/m 0 min 0 min 37 W/m 12,9 km/h (3 Bft) 93,48 %
09.01.2022 09:54 4,4 C 3,9 C 2,2 C 93 % 999,4 hPa 0,0 l/m 0 min 0 min 40 W/m 12,9 km/h (3 Bft) 95,74 %
09.01.2022 09:56 4,4 C 3,9 C 2,2 C 93 % 999,3 hPa 0,0 l/m 0 min 0 min 41 W/m 12,9 km/h (3 Bft) 95,74 %
09.01.2022 09:58 4,4 C 3,9 C 2,2 C 93 % 999,3 hPa 0,0 l/m 0 min 0 min 40 W/m 12,9 km/h (3 Bft) 95,74 %
09.01.2022 10:00 4,4 C 3,9 C 2,2 C 93 % 999,4 hPa 0,0 l/m 0 min 0 min 41 W/m 16,1 km/h (3 Bft) 93,62 %
09.01.2022 10:02 4,4 C 3,9 C 2,2 C 93 % 999,4 hPa 0,0 l/m 0 min 0 min 45 W/m 19,3 km/h (3 Bft) 95,74 %
09.01.2022 10:04 4,4 C 3,9 C 2,2 C 93 % 999,4 hPa 0,0 l/m 0 min 0 min 42 W/m 16,1 km/h (3 Bft) 97,87 %
09.01.2022 10:06 4,4 C 3,9 C 2,2 C 93 % 999,5 hPa 0,0 l/m 0 min 0 min 44 W/m 16,1 km/h (3 Bft) 97,83 %
09.01.2022 10:08 4,4 C 3,9 C 2,2 C 93 % 999,5 hPa 0,0 l/m 0 min 0 min 62 W/m 16,1 km/h (3 Bft) 100,00 %
09.01.2022 10:10 4,4 C 3,9 C 2,2 C 93 % 999,5 hPa 0,0 l/m 0 min 0 min 85 W/m 16,1 km/h (3 Bft) 97,87 %
09.01.2022 10:12 4,4 C 4,4 C 2,2 C 93 % 999,6 hPa 0,0 l/m 2 min 0 min 120 W/m 12,9 km/h (3 Bft) 100,00 %
09.01.2022 10:14 4,4 C 4,4 C 2,2 C 93 % 999,6 hPa 0,0 l/m 2 min 0 min 113 W/m 12,9 km/h (3 Bft) 100,00 %
09.01.2022 10:16 4,5 C 4,4 C 2,2 C 93 % 999,6 hPa 0,0 l/m 0 min 0 min 79 W/m 16,1 km/h (3 Bft) 97,83 %
09.01.2022 10:18 4,5 C 4,4 C 2,2 C 93 % 999,7 hPa 0,0 l/m 0 min 0 min 49 W/m 19,3 km/h (3 Bft) 95,74 %
09.01.2022 10:20 4,5 C 4,4 C 2,2 C 93 % 999,7 hPa 0,0 l/m 0 min 0 min 58 W/m 19,3 km/h (3 Bft) 100,00 %
09.01.2022 10:22 4,5 C 4,4 C 2,2 C 93 % 999,7 hPa 0,0 l/m 0 min 0 min 87 W/m 19,3 km/h (3 Bft) 97,87 %
09.01.2022 10:24 4,6 C 4,4 C 2,2 C 93 % 999,8 hPa 0,0 l/m 0 min 0 min 71 W/m 22,5 km/h (4 Bft) 97,87 %
09.01.2022 10:26 4,6 C 4,4 C 2,2 C 93 % 999,8 hPa 0,0 l/m 0 min 0 min 78 W/m 22,5 km/h (4 Bft) 97,87 %
09.01.2022 10:28 4,6 C 4,4 C 2,2 C 93 % 999,9 hPa 0,0 l/m 0 min 0 min 66 W/m 16,1 km/h (3 Bft) 97,83 %
09.01.2022 10:30 4,6 C 4,4 C 2,2 C 93 % 999,8 hPa 0,0 l/m 0 min 0 min 54 W/m 12,9 km/h (3 Bft) 95,74 %
09.01.2022 10:32 4,6 C 4,4 C 2,2 C 93 % 999,9 hPa 0,0 l/m 0 min 0 min 59 W/m 16,1 km/h (3 Bft) 97,87 %
09.01.2022 10:34 4,6 C 4,4 C 2,2 C 93 % 999,9 hPa 0,0 l/m 0 min 0 min 67 W/m 16,1 km/h (3 Bft) 97,87 %
09.01.2022 10:36 4,6 C 4,4 C 2,2 C 93 % 999,9 hPa 0,0 l/m 0 min 0 min 69 W/m 19,3 km/h (3 Bft) 97,87 %
09.01.2022 10:38 4,6 C 4,4 C 2,2 C 93 % 999,9 hPa 0,0 l/m 0 min 0 min 95 W/m 19,3 km/h (3 Bft) 97,83 %
09.01.2022 10:40 4,6 C 4,4 C 2,2 C 93 % 1000,0 hPa 0,0 l/m 0 min 0 min 82 W/m 16,1 km/h (3 Bft) 95,74 %
09.01.2022 10:42 4,6 C 4,4 C 2,2 C 93 % 1000,0 hPa 0,0 l/m 0 min 0 min 90 W/m 16,1 km/h (3 Bft) 97,87 %
09.01.2022 10:44 4,6 C 4,4 C 2,2 C 93 % 1000,1 hPa 0,0 l/m 0 min 0 min 114 W/m 16,1 km/h (3 Bft) 97,87 %
09.01.2022 10:46 4,6 C 4,4 C 2,2 C 93 % 1000,1 hPa 0,0 l/m 0 min 0 min 114 W/m 16,1 km/h (3 Bft) 97,87 %
09.01.2022 10:48 4,7 C 4,4 C 2,2 C 93 % 1000,2 hPa 0,0 l/m 0 min 0 min 88 W/m 12,9 km/h (3 Bft) 97,87 %
09.01.2022 10:50 4,7 C 4,4 C 2,2 C 93 % 1000,2 hPa 0,0 l/m 0 min 0 min 63 W/m 12,9 km/h (3 Bft) 97,83 %
09.01.2022 10:52 4,7 C 4,4 C 2,2 C 93 % 1000,3 hPa 0,0 l/m 0 min 0 min 41 W/m 16,1 km/h (3 Bft) 97,87 %
09.01.2022 10:54 4,7 C 4,4 C 2,2 C 93 % 1000,3 hPa 0,0 l/m 0 min 0 min 31 W/m 19,3 km/h (3 Bft) 100,00 %
09.01.2022 10:56 4,7 C 4,4 C 2,2 C 93 % 1000,3 hPa 0,0 l/m 0 min 2 min 28 W/m 12,9 km/h (3 Bft) 100,00 %
09.01.2022 10:58 4,7 C 3,9 C 2,2 C 93 % 1000,3 hPa 0,0 l/m 0 min 2 min 31 W/m 16,1 km/h (3 Bft) 100,00 %
09.01.2022 11:00 4,7 C 3,9 C 2,2 C 93 % 1000,3 hPa 0,0 l/m 0 min 2 min 47 W/m 16,1 km/h (3 Bft) 97,87 %
09.01.2022 11:02 4,7 C 3,9 C 2,2 C 93 % 1000,4 hPa 0,0 l/m 0 min 2 min 49 W/m 12,9 km/h (3 Bft) 100,00 %
09.01.2022 11:04 4,7 C 4,4 C 2,2 C 93 % 1000,4 hPa 0,0 l/m 0 min 2 min 45 W/m 12,9 km/h (3 Bft) 100,00 %
09.01.2022 11:06 4,6 C 3,9 C 2,2 C 93 % 1000,5 hPa 0,0 l/m 0 min 2 min 46 W/m 16,1 km/h (3 Bft) 100,00 %
09.01.2022 11:08 4,6 C 4,4 C 2,2 C 93 % 1000,5 hPa 0,0 l/m 0 min 2 min 45 W/m 16,1 km/h (3 Bft) 100,00 %
09.01.2022 11:10 4,6 C 3,9 C 2,2 C 93 % 1000,5 hPa 0,0 l/m 0 min 0 min 40 W/m 9,7 km/h (2 Bft) 100,00 %
09.01.2022 11:12 4,6 C 4,4 C 2,2 C 93 % 1000,6 hPa 0,0 l/m 0 min 0 min 44 W/m 12,9 km/h (3 Bft) 100,00 %
09.01.2022 11:14 4,6 C 4,4 C 2,2 C 93 % 1000,6 hPa 0,0 l/m 0 min 0 min 50 W/m 22,5 km/h (4 Bft) 100,00 %
09.01.2022 11:16 4,6 C 4,4 C 2,2 C 93 % 1000,6 hPa 0,0 l/m 0 min 0 min 36 W/m 16,1 km/h (3 Bft) 100,00 %
09.01.2022 11:18 4,6 C 4,4 C 2,2 C 94 % 1000,6 hPa 0,0 l/m 0 min 2 min 49 W/m 25,7 km/h (4 Bft) 100,00 %
09.01.2022 11:20 4,6 C 4,4 C 2,2 C 94 % 1000,6 hPa 0,0 l/m 0 min 2 min 61 W/m 19,3 km/h (3 Bft) 97,87 %
09.01.2022 11:22 4,6 C 4,4 C 2,2 C 94 % 1000,7 hPa 0,0 l/m 0 min 2 min 77 W/m 19,3 km/h (3 Bft) 97,87 %
09.01.2022 11:24 4,7 C 4,4 C 2,8 C 94 % 1000,7 hPa 0,0 l/m 0 min 2 min 85 W/m 12,9 km/h (3 Bft) 100,00 %
09.01.2022 11:26 4,7 C 4,4 C 2,8 C 94 % 1000,7 hPa 0,0 l/m 0 min 0 min 66 W/m 12,9 km/h (3 Bft) 97,83 %
09.01.2022 11:28 4,7 C 4,4 C 2,8 C 94 % 1000,7 hPa 0,0 l/m 0 min 2 min 73 W/m 22,5 km/h (4 Bft) 100,00 %
09.01.2022 11:30 4,7 C 4,4 C 2,8 C 94 % 1000,7 hPa 0,0 l/m 0 min 2 min 76 W/m 19,3 km/h (3 Bft) 100,00 %
09.01.2022 11:32 4,7 C 4,4 C 2,8 C 94 % 1000,8 hPa 0,0 l/m 0 min 2 min 92 W/m 16,1 km/h (3 Bft) 100,00 %
09.01.2022 11:34 4,8 C 4,4 C 2,8 C 94 % 1000,8 hPa 0,0 l/m 0 min 0 min 117 W/m 16,1 km/h (3 Bft) 100,00 %
09.01.2022 11:36 4,8 C 5,0 C 2,8 C 94 % 1000,8 hPa 0,0 l/m 0 min 0 min 103 W/m 16,1 km/h (3 Bft) 97,92 %
09.01.2022 11:38 4,8 C 5,0 C 2,8 C 94 % 1000,9 hPa 0,0 l/m 0 min 0 min 103 W/m 12,9 km/h (3 Bft) 100,00 %
09.01.2022 11:40 4,8 C 5,0 C 2,8 C 94 % 1001,0 hPa 0,0 l/m 0 min 0 min 100 W/m 16,1 km/h (3 Bft) 100,00 %
09.01.2022 11:42 4,9 C 5,0 C 2,8 C 94 % 1001,0 hPa 0,0 l/m 0 min 0 min 103 W/m 19,3 km/h (3 Bft) 100,00 %
09.01.2022 11:44 4,9 C 5,0 C 2,8 C 94 % 1000,9 hPa 0,0 l/m 0 min 0 min 143 W/m 19,3 km/h (3 Bft) 95,74 %
09.01.2022 11:46 4,9 C 5,6 C 2,8 C 94 % 1001,0 hPa 0,0 l/m 2 min 0 min 159 W/m 19,3 km/h (3 Bft) 100,00 %
09.01.2022 11:48 5,0 C 5,6 C 2,8 C 93 % 1001,0 hPa 0,0 l/m 0 min 0 min 112 W/m 16,1 km/h (3 Bft) 100,00 %
09.01.2022 11:50 5,1 C 5,0 C 2,8 C 93 % 1001,1 hPa 0,0 l/m 0 min 2 min 52 W/m 16,1 km/h (3 Bft) 100,00 %
09.01.2022 11:52 5,1 C 5,0 C 2,8 C 93 % 1001,1 hPa 0,0 l/m 0 min 2 min 47 W/m 16,1 km/h (3 Bft) 100,00 %
09.01.2022 11:54 5,1 C 5,0 C 2,8 C 93 % 1001,1 hPa 0,0 l/m 0 min 2 min 59 W/m 12,9 km/h (3 Bft) 97,87 %
09.01.2022 11:56 5,1 C 4,4 C 2,8 C 93 % 1001,2 hPa 0,0 l/m 0 min 2 min 58 W/m 12,9 km/h (3 Bft) 100,00 %
09.01.2022 11:58 5,1 C 4,4 C 2,8 C 93 % 1001,2 hPa 0,0 l/m 0 min 2 min 70 W/m 16,1 km/h (3 Bft) 100,00 %
09.01.2022 12:00 5,1 C 4,4 C 2,8 C 93 % 1001,3 hPa 0,0 l/m 0 min 2 min 63 W/m 19,3 km/h (3 Bft) 100,00 %
09.01.2022 12:02 5,1 C 4,4 C 2,8 C 93 % 1001,3 hPa 0,0 l/m 0 min 2 min 63 W/m 22,5 km/h (4 Bft) 95,74 %
09.01.2022 12:04 5,1 C 4,4 C 2,8 C 93 % 1001,3 hPa 0,0 l/m 0 min 2 min 55 W/m 12,9 km/h (3 Bft) 95,74 %
09.01.2022 12:08 5,0 C 4,4 C 2,8 C 93 % 1001,3 hPa 0,0 l/m 0 min 4 min 72 W/m 22,5 km/h (4 Bft) 95,79 %
09.01.2022 12:10 5,1 C 5,0 C 2,8 C 93 % 1001,3 hPa 0,0 l/m 0 min 2 min 105 W/m 12,9 km/h (3 Bft) 95,74 %
09.01.2022 12:12 5,1 C 5,0 C 2,8 C 93 % 1001,3 hPa 0,0 l/m 0 min 0 min 103 W/m 16,1 km/h (3 Bft) 95,65 %
09.01.2022 12:14 5,1 C 5,6 C 2,8 C 93 % 1001,3 hPa 0,0 l/m 0 min 2 min 110 W/m 22,5 km/h (4 Bft) 95,74 %
09.01.2022 12:16 5,1 C 5,6 C 2,8 C 93 % 1001,3 hPa 0,0 l/m 0 min 2 min 120 W/m 12,9 km/h (3 Bft) 95,74 %
09.01.2022 12:18 5,1 C 5,6 C 2,8 C 93 % 1001,3 hPa 0,0 l/m 0 min 2 min 91 W/m 16,1 km/h (3 Bft) 93,62 %
09.01.2022 12:20 5,1 C 5,0 C 2,8 C 93 % 1001,3 hPa 0,0 l/m 0 min 0 min 76 W/m 12,9 km/h (3 Bft) 93,62 %
09.01.2022 12:22 5,1 C 5,0 C 2,8 C 93 % 1001,4 hPa 0,0 l/m 0 min 0 min 74 W/m 16,1 km/h (3 Bft) 93,62 %
09.01.2022 12:24 5,1 C 5,0 C 2,8 C 93 % 1001,3 hPa 0,0 l/m 0 min 2 min 81 W/m 22,5 km/h (4 Bft) 93,48 %
09.01.2022 12:26 5,1 C 5,0 C 2,8 C 93 % 1001,3 hPa 0,0 l/m 0 min 0 min 94 W/m 16,1 km/h (3 Bft) 91,49 %
09.01.2022 12:28 5,1 C 5,0 C 2,8 C 93 % 1001,3 hPa 0,0 l/m 0 min 0 min 113 W/m 19,3 km/h (3 Bft) 93,62 %
09.01.2022 12:30 5,1 C 5,0 C 3,3 C 93 % 1001,3 hPa 0,0 l/m 0 min 0 min 123 W/m 12,9 km/h (3 Bft) 91,49 %
09.01.2022 12:32 5,2 C 5,0 C 3,3 C 93 % 1001,4 hPa 0,0 l/m 0 min 0 min 120 W/m 9,7 km/h (2 Bft) 93,62 %
09.01.2022 12:34 5,2 C 5,6 C 3,3 C 93 % 1001,4 hPa 0,0 l/m 0 min 0 min 116 W/m 12,9 km/h (3 Bft) 93,48 %
09.01.2022 12:36 5,2 C 5,6 C 3,3 C 93 % 1001,5 hPa 0,0 l/m 0 min 0 min 114 W/m 12,9 km/h (3 Bft) 93,62 %
09.01.2022 12:38 5,2 C 5,6 C 3,3 C 93 % 1001,5 hPa 0,0 l/m 0 min 0 min 110 W/m 22,5 km/h (4 Bft) 93,62 %
09.01.2022 12:40 5,2 C 5,0 C 3,3 C 93 % 1001,5 hPa 0,0 l/m 0 min 0 min 86 W/m 12,9 km/h (3 Bft) 91,49 %
09.01.2022 12:42 5,2 C 5,0 C 3,3 C 92 % 1001,6 hPa 0,0 l/m 0 min 0 min 74 W/m 12,9 km/h (3 Bft) 93,62 %
09.01.2022 12:44 5,2 C 5,0 C 3,3 C 92 % 1001,6 hPa 0,0 l/m 0 min 0 min 76 W/m 12,9 km/h (3 Bft) 93,62 %
09.01.2022 12:46 5,2 C 5,0 C 3,3 C 92 % 1001,7 hPa 0,0 l/m 0 min 0 min 119 W/m 12,9 km/h (3 Bft) 93,48 %
09.01.2022 12:48 5,2 C 5,0 C 3,3 C 92 % 1001,7 hPa 0,0 l/m 2 min 0 min 185 W/m 19,3 km/h (3 Bft) 95,74 %
09.01.2022 12:50 5,3 C 5,6 C 3,3 C 93 % 1001,7 hPa 0,0 l/m 2 min 0 min 201 W/m 6,4 km/h (2 Bft) 95,74 %
09.01.2022 12:52 5,3 C 5,6 C 3,3 C 93 % 1001,7 hPa 0,0 l/m 2 min 0 min 173 W/m 12,9 km/h (3 Bft) 93,62 %
09.01.2022 12:54 5,4 C 5,6 C 3,3 C 93 % 1001,7 hPa 0,0 l/m 0 min 0 min 143 W/m 12,9 km/h (3 Bft) 95,74 %
09.01.2022 12:56 5,4 C 5,6 C 3,9 C 93 % 1001,7 hPa 0,0 l/m 0 min 0 min 144 W/m 16,1 km/h (3 Bft) 97,87 %
09.01.2022 12:58 5,4 C 5,6 C 3,9 C 93 % 1001,6 hPa 0,0 l/m 0 min 0 min 128 W/m 12,9 km/h (3 Bft) 100,00 %
09.01.2022 13:00 5,4 C 5,6 C 3,3 C 93 % 1001,7 hPa 0,0 l/m 0 min 0 min 124 W/m 9,7 km/h (2 Bft) 97,87 %
09.01.2022 13:02 5,5 C 6,1 C 3,9 C 92 % 1001,7 hPa 0,0 l/m 0 min 0 min 153 W/m 12,9 km/h (3 Bft) 97,14 %
09.01.2022 13:04 5,5 C 7,2 C 3,9 C 92 % 1001,7 hPa 0,0 l/m 2 min 0 min 183 W/m 12,9 km/h (3 Bft) 100,00 %
09.01.2022 13:06 5,6 C 7,2 C 3,9 C 93 % 1001,8 hPa 0,0 l/m 2 min 0 min 181 W/m 12,9 km/h (3 Bft) 100,00 %
09.01.2022 13:08 5,6 C 6,7 C 3,9 C 92 % 1001,7 hPa 0,0 l/m 0 min 0 min 134 W/m 19,3 km/h (3 Bft) 100,00 %
09.01.2022 13:10 5,6 C 6,1 C 3,9 C 92 % 1001,7 hPa 0,0 l/m 2 min 0 min 169 W/m 16,1 km/h (3 Bft) 97,87 %
09.01.2022 13:12 5,7 C 6,7 C 3,9 C 92 % 1001,7 hPa 0,0 l/m 2 min 0 min 209 W/m 16,1 km/h (3 Bft) 100,00 %
09.01.2022 13:14 5,7 C 6,7 C 3,9 C 92 % 1001,7 hPa 0,0 l/m 2 min 0 min 205 W/m 19,3 km/h (3 Bft) 100,00 %
09.01.2022 13:16 5,7 C 6,7 C 3,9 C 92 % 1001,7 hPa 0,0 l/m 0 min 0 min 135 W/m 19,3 km/h (3 Bft) 100,00 %
09.01.2022 13:18 5,8 C 6,1 C 3,9 C 91 % 1001,7 hPa 0,0 l/m 0 min 0 min 132 W/m 19,3 km/h (3 Bft) 100,00 %
09.01.2022 13:20 5,8 C 6,1 C 3,9 C 91 % 1001,7 hPa 0,0 l/m 0 min 0 min 110 W/m 12,9 km/h (3 Bft) 100,00 %
09.01.2022 13:22 5,8 C 6,1 C 3,9 C 91 % 1001,8 hPa 0,0 l/m 0 min 0 min 117 W/m 16,1 km/h (3 Bft) 100,00 %
09.01.2022 13:24 5,8 C 6,1 C 3,9 C 91 % 1001,8 hPa 0,0 l/m 0 min 0 min 122 W/m 19,3 km/h (3 Bft) 97,87 %
09.01.2022 13:26 5,8 C 6,1 C 3,9 C 91 % 1001,9 hPa 0,0 l/m 0 min 0 min 147 W/m 16,1 km/h (3 Bft) 100,00 %
09.01.2022 13:28 5,9 C 7,2 C 3,9 C 91 % 1001,8 hPa 0,0 l/m 2 min 0 min 157 W/m 9,7 km/h (2 Bft) 100,00 %
09.01.2022 13:30 5,9 C 6,7 C 3,9 C 91 % 1001,8 hPa 0,0 l/m 0 min 0 min 144 W/m 16,1 km/h (3 Bft) 95,74 %
09.01.2022 13:32 5,9 C 6,7 C 3,9 C 91 % 1001,9 hPa 0,0 l/m 0 min 0 min 125 W/m 16,1 km/h (3 Bft) 100,00 %
09.01.2022 13:34 5,9 C 6,7 C 3,9 C 90 % 1001,9 hPa 0,0 l/m 0 min 0 min 139 W/m 19,3 km/h (3 Bft) 100,00 %
09.01.2022 13:36 5,9 C 6,7 C 3,9 C 90 % 1001,9 hPa 0,0 l/m 2 min 0 min 156 W/m 16,1 km/h (3 Bft) 100,00 %
09.01.2022 13:38 5,9 C 6,7 C 3,9 C 90 % 1001,9 hPa 0,0 l/m 2 min 0 min 154 W/m 16,1 km/h (3 Bft) 100,00 %
09.01.2022 13:40 5,9 C 6,1 C 3,9 C 90 % 1001,9 hPa 0,0 l/m 0 min 0 min 138 W/m 12,9 km/h (3 Bft) 100,00 %
09.01.2022 13:42 5,9 C 6,1 C 3,9 C 89 % 1002,0 hPa 0,0 l/m 0 min 0 min 109 W/m 19,3 km/h (3 Bft) 100,00 %
09.01.2022 13:44 5,9 C 6,1 C 3,9 C 89 % 1002,0 hPa 0,0 l/m 0 min 0 min 129 W/m 12,9 km/h (3 Bft) 100,00 %
09.01.2022 13:46 5,9 C 6,1 C 3,9 C 90 % 1002,0 hPa 0,0 l/m 0 min 0 min 123 W/m 9,7 km/h (2 Bft) 100,00 %
09.01.2022 13:48 5,9 C 5,6 C 3,9 C 90 % 1002,0 hPa 0,0 l/m 0 min 0 min 99 W/m 9,7 km/h (2 Bft) 95,74 %
09.01.2022 13:50 5,9 C 5,6 C 3,9 C 90 % 1002,0 hPa 0,0 l/m 0 min 0 min 75 W/m 12,9 km/h (3 Bft) 100,00 %
09.01.2022 13:52 5,9 C 5,6 C 3,9 C 89 % 1002,1 hPa 0,0 l/m 0 min 0 min 67 W/m 12,9 km/h (3 Bft) 100,00 %
09.01.2022 13:54 5,9 C 5,6 C 3,9 C 89 % 1002,1 hPa 0,0 l/m 0 min 0 min 57 W/m 12,9 km/h (3 Bft) 100,00 %
09.01.2022 13:56 5,8 C 5,6 C 3,9 C 89 % 1002,2 hPa 0,0 l/m 0 min 0 min 47 W/m 16,1 km/h (3 Bft) 100,00 %
09.01.2022 13:58 5,8 C 5,6 C 3,9 C 89 % 1002,1 hPa 0,0 l/m 0 min 0 min 45 W/m 9,7 km/h (2 Bft) 100,00 %
09.01.2022 14:00 5,8 C 5,6 C 3,9 C 89 % 1002,1 hPa 0,0 l/m 0 min 0 min 51 W/m 12,9 km/h (3 Bft) 100,00 %
09.01.2022 14:02 5,8 C 5,6 C 3,9 C 90 % 1002,2 hPa 0,0 l/m 0 min 0 min 52 W/m 12,9 km/h (3 Bft) 100,00 %
09.01.2022 14:04 5,7 C 5,6 C 3,9 C 90 % 1002,2 hPa 0,0 l/m 0 min 0 min 52 W/m 6,4 km/h (2 Bft) 100,00 %
09.01.2022 14:06 5,7 C 5,6 C 3,9 C 90 % 1002,1 hPa 0,0 l/m 0 min 0 min 73 W/m 12,9 km/h (3 Bft) 97,87 %
09.01.2022 14:08 5,8 C 6,1 C 3,9 C 90 % 1002,1 hPa 0,0 l/m 0 min 0 min 136 W/m 19,3 km/h (3 Bft) 100,00 %
09.01.2022 14:10 5,8 C 7,2 C 3,9 C 90 % 1002,1 hPa 0,0 l/m 2 min 0 min 286 W/m 16,1 km/h (3 Bft) 100,00 %
09.01.2022 14:12 5,8 C 8,3 C 3,9 C 90 % 1002,1 hPa 0,0 l/m 2 min 0 min 296 W/m 12,9 km/h (3 Bft) 100,00 %
09.01.2022 14:14 5,9 C 8,9 C 3,9 C 90 % 1002,1 hPa 0,0 l/m 2 min 0 min 245 W/m 12,9 km/h (3 Bft) 100,00 %
09.01.2022 14:16 6,0 C 8,9 C 3,9 C 90 % 1002,1 hPa 0,0 l/m 2 min 0 min 228 W/m 12,9 km/h (3 Bft) 100,00 %
09.01.2022 14:18 6,1 C 8,9 C 3,9 C 90 % 1002,2 hPa 0,0 l/m 2 min 0 min 216 W/m 6,4 km/h (2 Bft) 97,87 %
09.01.2022 14:20 6,1 C 9,4 C 3,9 C 90 % 1002,3 hPa 0,0 l/m 2 min 0 min 213 W/m 12,9 km/h (3 Bft) 100,00 %
09.01.2022 14:22 6,1 C 9,4 C 3,3 C 90 % 1002,3 hPa 0,0 l/m 2 min 0 min 206 W/m 12,9 km/h (3 Bft) 97,83 %
09.01.2022 14:24 6,0 C 9,4 C 3,3 C 89 % 1002,3 hPa 0,0 l/m 2 min 0 min 210 W/m 12,9 km/h (3 Bft) 100,00 %
09.01.2022 14:26 6,0 C 8,9 C 3,3 C 89 % 1002,4 hPa 0,0 l/m 2 min 0 min 166 W/m 12,9 km/h (3 Bft) 100,00 %
09.01.2022 14:28 5,9 C 7,2 C 3,3 C 89 % 1002,4 hPa 0,0 l/m 0 min 0 min 79 W/m 16,1 km/h (3 Bft) 100,00 %
09.01.2022 14:30 5,9 C 6,7 C 3,3 C 89 % 1002,3 hPa 0,0 l/m 2 min 0 min 178 W/m 12,9 km/h (3 Bft) 100,00 %
09.01.2022 14:32 5,9 C 7,2 C 3,3 C 89 % 1002,4 hPa 0,0 l/m 2 min 0 min 197 W/m 6,4 km/h (2 Bft) 97,92 %
09.01.2022 14:34 5,9 C 7,2 C 3,3 C 89 % 1002,4 hPa 0,0 l/m 2 min 0 min 170 W/m 6,4 km/h (2 Bft) 95,65 %
09.01.2022 14:36 5,9 C 7,2 C 3,3 C 89 % 1002,5 hPa 0,0 l/m 2 min 0 min 151 W/m 16,1 km/h (3 Bft) 100,00 %
09.01.2022 14:38 5,9 C 7,2 C 3,3 C 89 % 1002,5 hPa 0,0 l/m 2 min 0 min 173 W/m 16,1 km/h (3 Bft) 95,74 %
09.01.2022 14:40 5,8 C 6,7 C 3,3 C 89 % 1002,5 hPa 0,0 l/m 0 min 0 min 118 W/m 12,9 km/h (3 Bft) 97,87 %
09.01.2022 14:42 5,8 C 6,1 C 3,3 C 89 % 1002,5 hPa 0,0 l/m 0 min 0 min 85 W/m 6,4 km/h (2 Bft) 97,87 %
09.01.2022 14:44 5,8 C 6,1 C 3,3 C 89 % 1002,6 hPa 0,0 l/m 0 min 0 min 106 W/m 16,1 km/h (3 Bft) 97,87 %
09.01.2022 14:46 5,7 C 6,7 C 3,3 C 89 % 1002,6 hPa 0,0 l/m 2 min 0 min 170 W/m 9,7 km/h (2 Bft) 97,83 %
09.01.2022 14:48 5,7 C 7,8 C 2,8 C 89 % 1002,6 hPa 0,0 l/m 2 min 0 min 165 W/m 9,7 km/h (2 Bft) 93,62 %
09.01.2022 14:50 5,7 C 8,9 C 2,8 C 89 % 1002,6 hPa 0,0 l/m 2 min 0 min 162 W/m 12,9 km/h (3 Bft) 95,74 %
09.01.2022 14:52 5,7 C 9,4 C 2,8 C 89 % 1002,6 hPa 0,0 l/m 2 min 0 min 148 W/m 6,4 km/h (2 Bft) 95,74 %
09.01.2022 14:54 5,7 C 9,4 C 2,8 C 89 % 1002,6 hPa 0,0 l/m 2 min 0 min 126 W/m 6,4 km/h (2 Bft) 95,74 %
09.01.2022 14:56 5,7 C 9,4 C 2,8 C 89 % 1002,5 hPa 0,0 l/m 2 min 0 min 133 W/m 12,9 km/h (3 Bft) 93,62 %
09.01.2022 14:58 5,7 C 8,9 C 2,8 C 89 % 1002,6 hPa 0,0 l/m 2 min 0 min 123 W/m 16,1 km/h (3 Bft) 93,48 %
09.01.2022 15:00 5,6 C 7,8 C 2,8 C 89 % 1002,6 hPa 0,0 l/m 2 min 0 min 132 W/m 6,4 km/h (2 Bft) 95,74 %
09.01.2022 15:02 5,6 C 6,7 C 2,8 C 89 % 1002,6 hPa 0,0 l/m 2 min 0 min 165 W/m 3,2 km/h (1 Bft) 91,49 %
09.01.2022 15:04 5,7 C 6,7 C 3,3 C 89 % 1002,7 hPa 0,0 l/m 2 min 0 min 193 W/m 9,7 km/h (2 Bft) 95,74 %
09.01.2022 15:06 5,7 C 6,1 C 3,3 C 90 % 1002,7 hPa 0,0 l/m 2 min 0 min 191 W/m 12,9 km/h (3 Bft) 93,62 %
09.01.2022 15:08 5,7 C 6,1 C 3,3 C 90 % 1002,7 hPa 0,0 l/m 2 min 0 min 191 W/m 9,7 km/h (2 Bft) 91,49 %
09.01.2022 15:10 5,7 C 6,1 C 3,3 C 90 % 1002,7 hPa 0,0 l/m 2 min 0 min 179 W/m 9,7 km/h (2 Bft) 95,65 %
09.01.2022 15:12 5,7 C 6,1 C 3,3 C 90 % 1002,7 hPa 0,0 l/m 2 min 0 min 105 W/m 6,4 km/h (2 Bft) 93,62 %
09.01.2022 15:14 5,8 C 5,6 C 3,3 C 90 % 1002,8 hPa 0,0 l/m 0 min 0 min 90 W/m 6,4 km/h (2 Bft) 95,74 %
09.01.2022 15:16 5,7 C 5,6 C 3,3 C 90 % 1002,8 hPa 0,0 l/m 0 min 0 min 68 W/m 12,9 km/h (3 Bft) 97,87 %
09.01.2022 15:18 5,7 C 5,6 C 3,3 C 90 % 1002,8 hPa 0,0 l/m 0 min 0 min 57 W/m 16,1 km/h (3 Bft) 93,62 %
09.01.2022 15:20 5,7 C 5,0 C 3,3 C 90 % 1002,8 hPa 0,0 l/m 0 min 0 min 53 W/m 16,1 km/h (3 Bft) 93,62 %
09.01.2022 15:22 5,6 C 5,0 C 3,3 C 90 % 1002,8 hPa 0,0 l/m 0 min 0 min 50 W/m 6,4 km/h (2 Bft) 95,65 %
09.01.2022 15:24 5,6 C 5,0 C 3,3 C 90 % 1002,9 hPa 0,0 l/m 0 min 0 min 47 W/m 16,1 km/h (3 Bft) 93,62 %
09.01.2022 15:26 5,6 C 5,0 C 3,3 C 90 % 1002,9 hPa 0,0 l/m 0 min 0 min 49 W/m 12,9 km/h (3 Bft) 95,74 %
09.01.2022 15:28 5,6 C 5,0 C 3,3 C 90 % 1002,9 hPa 0,0 l/m 0 min 0 min 53 W/m 3,2 km/h (1 Bft) 95,74 %
09.01.2022 15:30 5,6 C 5,0 C 3,3 C 90 % 1002,9 hPa 0,0 l/m 0 min 0 min 57 W/m 16,1 km/h (3 Bft) 52,27 %
09.01.2022 15:32 5,5 C 5,0 C 3,3 C 90 % 1002,9 hPa 0,0 l/m 0 min 0 min 67 W/m 16,1 km/h (3 Bft) 95,65 %
09.01.2022 15:34 5,5 C 5,0 C 3,3 C 90 % 1002,9 hPa 0,0 l/m 2 min 0 min 77 W/m 12,9 km/h (3 Bft) 95,74 %
09.01.2022 15:36 5,6 C 5,6 C 3,3 C 91 % 1003,0 hPa 0,0 l/m 2 min 0 min 72 W/m 9,7 km/h (2 Bft) 95,74 %
09.01.2022 15:38 5,6 C 5,6 C 3,3 C 91 % 1002,9 hPa 0,0 l/m 0 min 0 min 62 W/m 6,4 km/h (2 Bft) 95,74 %
09.01.2022 15:40 5,6 C 5,6 C 3,3 C 91 % 1003,0 hPa 0,0 l/m 0 min 0 min 59 W/m 12,9 km/h (3 Bft) 95,74 %
09.01.2022 15:42 5,6 C 5,6 C 3,3 C 91 % 1003,0 hPa 0,0 l/m 0 min 0 min 59 W/m 6,4 km/h (2 Bft) 95,74 %
09.01.2022 15:44 5,6 C 5,6 C 3,3 C 91 % 1003,0 hPa 0,0 l/m 0 min 0 min 57 W/m 9,7 km/h (2 Bft) 95,74 %
09.01.2022 15:46 5,6 C 5,6 C 3,3 C 91 % 1003,0 hPa 0,0 l/m 0 min 0 min 56 W/m 16,1 km/h (3 Bft) 95,65 %
09.01.2022 15:48 5,6 C 5,6 C 3,3 C 91 % 1003,0 hPa 0,0 l/m 2 min 0 min 60 W/m 16,1 km/h (3 Bft) 97,87 %
09.01.2022 15:50 5,6 C 5,6 C 3,3 C 91 % 1003,0 hPa 0,0 l/m 2 min 0 min 64 W/m 12,9 km/h (3 Bft) 97,87 %
09.01.2022 15:52 5,6 C 5,0 C 3,3 C 91 % 1003,1 hPa 0,0 l/m 0 min 0 min 53 W/m 16,1 km/h (3 Bft) 97,87 %
09.01.2022 15:54 5,6 C 5,0 C 3,3 C 91 % 1003,0 hPa 0,0 l/m 0 min 0 min 35 W/m 9,7 km/h (2 Bft) 97,87 %
09.01.2022 15:56 5,6 C 5,0 C 3,3 C 91 % 1003,1 hPa 0,0 l/m 0 min 0 min 25 W/m 12,9 km/h (3 Bft) 97,87 %
09.01.2022 15:58 5,5 C 5,0 C 3,3 C 91 % 1003,1 hPa 0,0 l/m 0 min 0 min 23 W/m 16,1 km/h (3 Bft) 97,83 %
09.01.2022 16:00 5,5 C 5,0 C 3,3 C 91 % 1003,1 hPa 0,0 l/m 0 min 0 min 25 W/m 6,4 km/h (2 Bft) 95,74 %
09.01.2022 16:02 5,5 C 5,0 C 3,3 C 91 % 1003,2 hPa 0,0 l/m 0 min 0 min 28 W/m 6,4 km/h (2 Bft) 97,92 %
09.01.2022 16:04 5,4 C 5,0 C 3,3 C 91 % 1003,2 hPa 0,0 l/m 0 min 0 min 27 W/m 9,7 km/h (2 Bft) 97,87 %
09.01.2022 16:06 5,4 C 5,0 C 2,8 C 91 % 1003,3 hPa 0,0 l/m 0 min 0 min 25 W/m 6,4 km/h (2 Bft) 100,00 %
09.01.2022 16:08 5,4 C 4,4 C 2,8 C 91 % 1003,3 hPa 0,0 l/m 0 min 0 min 21 W/m 6,4 km/h (2 Bft) 100,00 %
09.01.2022 16:10 5,4 C 4,4 C 2,8 C 91 % 1003,3 hPa 0,0 l/m 0 min 0 min 19 W/m 3,2 km/h (1 Bft) 100,00 %
09.01.2022 16:12 5,3 C 4,4 C 2,8 C 91 % 1003,3 hPa 0,0 l/m 0 min 0 min 18 W/m 6,4 km/h (2 Bft) 100,00 %
09.01.2022 16:14 5,3 C 4,4 C 2,8 C 91 % 1003,4 hPa 0,0 l/m 0 min 0 min 18 W/m 3,2 km/h (1 Bft) 100,00 %
09.01.2022 16:16 5,3 C 4,4 C 2,8 C 91 % 1003,4 hPa 0,0 l/m 0 min 0 min 16 W/m 3,2 km/h (1 Bft) 100,00 %
09.01.2022 16:18 5,2 C 4,4 C 2,8 C 91 % 1003,4 hPa 0,0 l/m 0 min 0 min 13 W/m 6,4 km/h (2 Bft) 95,74 %
09.01.2022 16:20 5,2 C 4,4 C 2,8 C 91 % 1003,4 hPa 0,0 l/m 0 min 0 min 12 W/m 6,4 km/h (2 Bft) 100,00 %
09.01.2022 16:22 5,2 C 3,9 C 2,8 C 91 % 1003,5 hPa 0,0 l/m 0 min 0 min 12 W/m 3,2 km/h (1 Bft) 100,00 %
09.01.2022 16:24 5,1 C 3,9 C 2,2 C 91 % 1003,5 hPa 0,0 l/m 0 min 0 min 12 W/m 6,4 km/h (2 Bft) 100,00 %
09.01.2022 16:26 5,1 C 3,9 C 2,2 C 91 % 1003,6 hPa 0,0 l/m 0 min 0 min 12 W/m 3,2 km/h (1 Bft) 100,00 %
09.01.2022 16:28 5,1 C 3,9 C 2,2 C 92 % 1003,6 hPa 0,0 l/m 0 min 0 min 11 W/m 3,2 km/h (1 Bft) 100,00 %
09.01.2022 16:30 5,0 C 3,9 C 2,2 C 92 % 1003,6 hPa 0,0 l/m 0 min 0 min 11 W/m 6,4 km/h (2 Bft) 100,00 %
09.01.2022 16:32 5,0 C 3,9 C 2,2 C 92 % 1003,6 hPa 0,0 l/m 0 min 0 min 9 W/m 6,4 km/h (2 Bft) 100,00 %
09.01.2022 16:34 4,9 C 3,9 C 2,2 C 92 % 1003,7 hPa 0,0 l/m 0 min 0 min 9 W/m 3,2 km/h (1 Bft) 100,00 %
09.01.2022 16:36 4,9 C 3,9 C 2,2 C 92 % 1003,7 hPa 0,0 l/m 0 min 0 min 7 W/m 3,2 km/h (1 Bft) 97,87 %
09.01.2022 16:38 4,8 C 3,9 C 2,2 C 92 % 1003,7 hPa 0,0 l/m 0 min 0 min 7 W/m 3,2 km/h (1 Bft) 100,00 %
09.01.2022 16:40 4,8 C 3,9 C 2,2 C 92 % 1003,8 hPa 0,0 l/m 0 min 0 min 7 W/m 6,4 km/h (2 Bft) 100,00 %
09.01.2022 16:42 4,8 C 3,3 C 2,2 C 92 % 1003,9 hPa 0,0 l/m 0 min 0 min 5 W/m 3,2 km/h (1 Bft) 100,00 %
09.01.2022 16:44 4,7 C 3,3 C 2,2 C 92 % 1003,9 hPa 0,0 l/m 0 min 0 min 5 W/m 3,2 km/h (1 Bft) 100,00 %
09.01.2022 16:46 4,7 C 3,3 C 2,2 C 92 % 1003,9 hPa 0,0 l/m 0 min 0 min 5 W/m 6,4 km/h (2 Bft) 100,00 %
09.01.2022 16:48 4,7 C 3,3 C 2,2 C 92 % 1004,0 hPa 0,0 l/m 0 min 0 min 5 W/m 3,2 km/h (1 Bft) 100,00 %
09.01.2022 16:50 4,6 C 3,3 C 2,2 C 92 % 1004,1 hPa 0,0 l/m 0 min 0 min 2 W/m 6,4 km/h (2 Bft) 100,00 %
09.01.2022 16:52 4,6 C 3,3 C 2,2 C 92 % 1004,1 hPa 0,0 l/m 0 min 0 min 0 W/m 3,2 km/h (1 Bft) 100,00 %
09.01.2022 16:54 4,6 C 3,3 C 2,2 C 92 % 1004,1 hPa 0,0 l/m 0 min 0 min 0 W/m 6,4 km/h (2 Bft) 100,00 %
09.01.2022 16:56 4,6 C 3,3 C 2,2 C 92 % 1004,1 hPa 0,0 l/m 0 min 0 min 0 W/m 3,2 km/h (1 Bft) 100,00 %
09.01.2022 16:58 4,5 C 3,3 C 2,2 C 92 % 1004,1 hPa 0,0 l/m 0 min 0 min 0 W/m 6,4 km/h (2 Bft) 100,00 %
09.01.2022 17:00 4,5 C 3,3 C 2,2 C 92 % 1004,1 hPa 0,0 l/m 0 min 0 min 0 W/m 3,2 km/h (1 Bft) 100,00 %
09.01.2022 17:02 4,5 C 3,3 C 1,7 C 93 % 1004,2 hPa 0,0 l/m 0 min 0 min 0 W/m 3,2 km/h (1 Bft) 100,00 %
09.01.2022 17:04 4,4 C 3,3 C 1,7 C 92 % 1004,2 hPa 0,0 l/m 0 min 0 min 0 W/m 6,4 km/h (2 Bft) 97,87 %
09.01.2022 17:06 4,4 C 3,3 C 1,7 C 92 % 1004,1 hPa 0,0 l/m 0 min 0 min 0 W/m 3,2 km/h (1 Bft) 100,00 %
09.01.2022 17:08 4,4 C 3,3 C 1,7 C 93 % 1004,2 hPa 0,0 l/m 0 min 0 min 0 W/m 6,4 km/h (2 Bft) 100,00 %
09.01.2022 17:10 4,4 C 3,3 C 1,7 C 93 % 1004,2 hPa 0,0 l/m 0 min 0 min 0 W/m 6,4 km/h (2 Bft) 100,00 %
09.01.2022 17:12 4,4 C 3,3 C 1,7 C 93 % 1004,2 hPa 0,0 l/m 0 min 0 min 0 W/m 3,2 km/h (1 Bft) 97,87 %
09.01.2022 17:14 4,4 C 3,3 C 1,7 C 93 % 1004,2 hPa 0,0 l/m 0 min 0 min 0 W/m 6,4 km/h (2 Bft) 93,62 %
09.01.2022 17:16 4,3 C 3,3 C 1,7 C 93 % 1004,3 hPa 0,0 l/m 0 min 0 min 0 W/m 3,2 km/h (1 Bft) 93,62 %
09.01.2022 17:18 4,4 C 3,3 C 2,2 C 93 % 1004,3 hPa 0,0 l/m 0 min 0 min 0 W/m 16,1 km/h (3 Bft) 95,74 %
09.01.2022 17:20 4,4 C 3,9 C 2,2 C 93 % 1004,3 hPa 0,0 l/m 0 min 0 min 0 W/m 6,4 km/h (2 Bft) 95,65 %
09.01.2022 17:22 4,4 C 3,9 C 2,2 C 93 % 1004,3 hPa 0,0 l/m 0 min 0 min 0 W/m 12,9 km/h (3 Bft) 95,74 %
09.01.2022 17:24 4,4 C 3,9 C 2,2 C 93 % 1004,3 hPa 0,0 l/m 0 min 0 min 0 W/m 6,4 km/h (2 Bft) 95,74 %
09.01.2022 17:26 4,4 C 3,9 C 2,2 C 93 % 1004,4 hPa 0,0 l/m 0 min 0 min 0 W/m 6,4 km/h (2 Bft) 93,62 %
09.01.2022 17:28 4,4 C 3,9 C 2,2 C 93 % 1004,4 hPa 0,0 l/m 0 min 0 min 0 W/m 6,4 km/h (2 Bft) 95,74 %
09.01.2022 17:30 4,4 C 3,9 C 2,2 C 93 % 1004,4 hPa 0,0 l/m 0 min 0 min 0 W/m 16,1 km/h (3 Bft) 93,62 %
09.01.2022 17:32 4,4 C 3,9 C 2,2 C 93 % 1004,5 hPa 0,0 l/m 0 min 0 min 0 W/m 6,4 km/h (2 Bft) 93,48 %
09.01.2022 17:34 4,5 C 3,9 C 2,2 C 93 % 1004,4 hPa 0,0 l/m 0 min 0 min 0 W/m 6,4 km/h (2 Bft) 93,62 %
09.01.2022 17:36 4,5 C 3,9 C 2,2 C 93 % 1004,5 hPa 0,0 l/m 0 min 0 min 0 W/m 6,4 km/h (2 Bft) 95,74 %
09.01.2022 17:38 4,5 C 3,9 C 2,2 C 93 % 1004,5 hPa 0,0 l/m 0 min 0 min 0 W/m 9,7 km/h (2 Bft) 95,74 %
09.01.2022 17:40 4,5 C 3,9 C 2,2 C 93 % 1004,6 hPa 0,0 l/m 0 min 0 min 0 W/m 6,4 km/h (2 Bft) 95,74 %
09.01.2022 17:42 4,5 C 3,9 C 2,2 C 93 % 1004,6 hPa 0,0 l/m 0 min 0 min 0 W/m 9,7 km/h (2 Bft) 95,74 %
09.01.2022 17:44 4,5 C 3,9 C 2,2 C 93 % 1004,6 hPa 0,0 l/m 0 min 0 min 0 W/m 3,2 km/h (1 Bft) 93,48 %
09.01.2022 17:46 4,5 C 3,9 C 2,2 C 93 % 1004,6 hPa 0,0 l/m 0 min 0 min 0 W/m 3,2 km/h (1 Bft) 93,62 %
09.01.2022 17:48 4,5 C 3,9 C 2,2 C 93 % 1004,7 hPa 0,0 l/m 0 min 0 min 0 W/m 3,2 km/h (1 Bft) 93,62 %
09.01.2022 17:50 4,4 C 3,9 C 2,2 C 93 % 1004,7 hPa 0,0 l/m 0 min 0 min 0 W/m 6,4 km/h (2 Bft) 95,74 %
09.01.2022 17:52 4,4 C 3,9 C 2,2 C 93 % 1004,8 hPa 0,0 l/m 0 min 0 min 0 W/m 6,4 km/h (2 Bft) 95,74 %
09.01.2022 17:54 4,4 C 3,9 C 2,2 C 93 % 1004,8 hPa 0,0 l/m 0 min 0 min 0 W/m 3,2 km/h (1 Bft) 95,74 %
09.01.2022 17:56 4,4 C 3,9 C 2,2 C 93 % 1004,8 hPa 0,0 l/m 0 min 0 min 0 W/m 3,2 km/h (1 Bft) 95,65 %
09.01.2022 17:58 4,4 C 3,9 C 2,2 C 93 % 1004,8 hPa 0,0 l/m 0 min 0 min 0 W/m 6,4 km/h (2 Bft) 95,74 %
09.01.2022 18:00 4,4 C 3,9 C 2,2 C 93 % 1004,8 hPa 0,0 l/m 0 min 0 min 0 W/m 6,4 km/h (2 Bft) 95,74 %
09.01.2022 18:02 4,4 C 3,9 C 2,2 C 93 % 1004,9 hPa 0,0 l/m 0 min 0 min 0 W/m 6,4 km/h (2 Bft) 95,74 %
09.01.2022 18:04 4,4 C 3,9 C 2,2 C 93 % 1004,9 hPa 0,0 l/m 0 min 0 min 0 W/m 12,9 km/h (3 Bft) 93,62 %
09.01.2022 18:06 4,4 C 3,3 C 2,2 C 93 % 1004,9 hPa 0,0 l/m 0 min 0 min 0 W/m 6,4 km/h (2 Bft) 95,74 %
09.01.2022 18:08 4,3 C 3,3 C 2,2 C 93 % 1005,0 hPa 0,0 l/m 0 min 0 min 0 W/m 6,4 km/h (2 Bft) 97,87 %
09.01.2022 18:10 4,3 C 3,3 C 2,2 C 93 % 1004,9 hPa 0,0 l/m 0 min 0 min 0 W/m 6,4 km/h (2 Bft) 97,87 %
09.01.2022 18:12 4,3 C 3,3 C 2,2 C 93 % 1005,0 hPa 0,0 l/m 0 min 0 min 0 W/m 6,4 km/h (2 Bft) 97,87 %
09.01.2022 18:14 4,3 C 3,3 C 1,7 C 93 % 1005,0 hPa 0,0 l/m 0 min 0 min 0 W/m 3,2 km/h (1 Bft) 93,62 %
09.01.2022 18:16 4,3 C 3,3 C 1,7 C 93 % 1005,0 hPa 0,0 l/m 0 min 0 min 0 W/m 6,4 km/h (2 Bft) 97,87 %
09.01.2022 18:18 4,3 C 3,3 C 1,7 C 93 % 1005,1 hPa 0,0 l/m 0 min 0 min 0 W/m 6,4 km/h (2 Bft) 97,83 %
09.01.2022 18:20 4,3 C 3,3 C 1,7 C 93 % 1005,1 hPa 0,0 l/m 0 min 0 min 0 W/m 6,4 km/h (2 Bft) 95,74 %
09.01.2022 18:22 4,2 C 3,3 C 1,7 C 93 % 1005,2 hPa 0,0 l/m 0 min 0 min 0 W/m 6,4 km/h (2 Bft) 95,74 %
09.01.2022 18:24 4,2 C 3,3 C 1,7 C 93 % 1005,2 hPa 0,0 l/m 0 min 0 min 0 W/m 3,2 km/h (1 Bft) 100,00 %
09.01.2022 18:26 4,2 C 3,3 C 1,7 C 93 % 1005,2 hPa 0,0 l/m 0 min 0 min 0 W/m 3,2 km/h (1 Bft) 100,00 %
09.01.2022 18:28 4,2 C 3,3 C 1,7 C 93 % 1005,2 hPa 0,0 l/m 0 min 0 min 0 W/m 6,4 km/h (2 Bft) 100,00 %
09.01.2022 18:30 4,2 C 3,3 C 1,7 C 93 % 1005,2 hPa 0,0 l/m 0 min 0 min 0 W/m 3,2 km/h (1 Bft) 100,00 %
09.01.2022 18:32 4,1 C 3,3 C 1,7 C 93 % 1005,3 hPa 0,0 l/m 0 min 0 min 0 W/m 3,2 km/h (1 Bft) 100,00 %
09.01.2022 18:34 4,1 C 2,8 C 1,7 C 93 % 1005,4 hPa 0,0 l/m 0 min 0 min 0 W/m 0,0 km/h (0 Bft) 100,00 %
09.01.2022 18:36 4,1 C 2,8 C 1,7 C 93 % 1005,4 hPa 0,0 l/m 0 min 0 min 0 W/m 3,2 km/h (1 Bft) 100,00 %
09.01.2022 18:38 4,1 C 2,8 C 1,7 C 93 % 1005,5 hPa 0,0 l/m 0 min 0 min 0 W/m 6,4 km/h (2 Bft) 97,87 %
09.01.2022 18:40 4,0 C 2,8 C 1,7 C 93 % 1005,5 hPa 0,0 l/m 0 min 0 min 0 W/m 3,2 km/h (1 Bft) 100,00 %
09.01.2022 18:42 4,0 C 2,8 C 1,7 C 93 % 1005,5 hPa 0,0 l/m 0 min 0 min 0 W/m 3,2 km/h (1 Bft) 100,00 %
09.01.2022 18:44 4,0 C 2,8 C 1,7 C 93 % 1005,5 hPa 0,0 l/m 0 min 0 min 0 W/m 6,4 km/h (2 Bft) 100,00 %
09.01.2022 18:46 3,9 C 2,8 C 1,7 C 93 % 1005,6 hPa 0,0 l/m 0 min 0 min 0 W/m 6,4 km/h (2 Bft) 100,00 %
09.01.2022 18:48 3,9 C 2,8 C 1,7 C 93 % 1005,6 hPa 0,0 l/m 0 min 0 min 0 W/m 6,4 km/h (2 Bft) 100,00 %
09.01.2022 18:50 3,9 C 2,8 C 1,7 C 93 % 1005,7 hPa 0,0 l/m 0 min 0 min 0 W/m 3,2 km/h (1 Bft) 100,00 %
09.01.2022 18:52 3,9 C 2,8 C 1,7 C 93 % 1005,6 hPa 0,0 l/m 0 min 0 min 0 W/m 6,4 km/h (2 Bft) 100,00 %
09.01.2022 18:54 3,9 C 2,8 C 1,7 C 93 % 1005,7 hPa 0,0 l/m 0 min 0 min 0 W/m 3,2 km/h (1 Bft) 100,00 %
09.01.2022 18:56 3,9 C 2,8 C 1,7 C 93 % 1005,7 hPa 0,0 l/m 0 min 0 min 0 W/m 6,4 km/h (2 Bft) 100,00 %
09.01.2022 18:58 3,8 C 2,8 C 1,1 C 93 % 1005,8 hPa 0,0 l/m 0 min 0 min 0 W/m 3,2 km/h (1 Bft) 100,00 %
09.01.2022 19:00 3,8 C 2,8 C 1,1 C 93 % 1005,8 hPa 0,0 l/m 0 min 0 min 0 W/m 6,4 km/h (2 Bft) 100,00 %
09.01.2022 19:02 3,8 C 2,8 C 1,1 C 93 % 1005,8 hPa 0,0 l/m 0 min 0 min 0 W/m 6,4 km/h (2 Bft) 100,00 %
09.01.2022 19:04 3,7 C 2,8 C 1,1 C 93 % 1005,9 hPa 0,0 l/m 0 min 0 min 0 W/m 6,4 km/h (2 Bft) 100,00 %
09.01.2022 19:06 3,7 C 2,8 C 1,1 C 93 % 1005,9 hPa 0,0 l/m 0 min 0 min 0 W/m 6,4 km/h (2 Bft) 97,83 %
09.01.2022 19:08 3,7 C 2,2 C 1,1 C 93 % 1005,9 hPa 0,0 l/m 0 min 0 min 0 W/m 3,2 km/h (1 Bft) 100,00 %
09.01.2022 19:10 3,7 C 2,2 C 1,1 C 93 % 1006,0 hPa 0,0 l/m 0 min 0 min 0 W/m 6,4 km/h (2 Bft) 97,87 %
09.01.2022 19:12 3,6 C 2,2 C 1,1 C 93 % 1006,0 hPa 0,0 l/m 0 min 0 min 0 W/m 6,4 km/h (2 Bft) 97,87 %
09.01.2022 19:14 3,6 C 2,2 C 1,1 C 93 % 1006,1 hPa 0,0 l/m 0 min 0 min 0 W/m 6,4 km/h (2 Bft) 97,87 %
09.01.2022 19:16 3,6 C 2,2 C 1,1 C 93 % 1006,1 hPa 0,0 l/m 0 min 0 min 0 W/m 3,2 km/h (1 Bft) 97,87 %
09.01.2022 19:18 3,6 C 2,2 C 1,1 C 93 % 1006,1 hPa 0,0 l/m 0 min 0 min 0 W/m 0,0 km/h (0 Bft) 97,83 %
09.01.2022 19:20 3,5 C 2,2 C 1,1 C 93 % 1006,1 hPa 0,0 l/m 0 min 0 min 0 W/m 3,2 km/h (1 Bft) 97,87 %
09.01.2022 19:22 3,5 C 2,2 C 1,1 C 93 % 1006,1 hPa 0,0 l/m 0 min 0 min 0 W/m 3,2 km/h (1 Bft) 97,87 %
09.01.2022 19:24 3,4 C 2,2 C 1,1 C 93 % 1006,2 hPa 0,0 l/m 0 min 0 min 0 W/m 6,4 km/h (2 Bft) 100,00 %
09.01.2022 19:26 3,4 C 2,2 C 1,1 C 94 % 1006,2 hPa 0,0 l/m 0 min 0 min 0 W/m 6,4 km/h (2 Bft) 97,87 %
09.01.2022 19:28 3,4 C 2,2 C 0,6 C 94 % 1006,3 hPa 0,0 l/m 0 min 0 min 0 W/m 6,4 km/h (2 Bft) 100,00 %
09.01.2022 19:30 3,3 C 2,2 C 0,6 C 94 % 1006,3 hPa 0,0 l/m 0 min 0 min 0 W/m 6,4 km/h (2 Bft) 95,65 %
09.01.2022 19:32 3,3 C 2,2 C 0,6 C 93 % 1006,3 hPa 0,0 l/m 0 min 0 min 0 W/m 6,4 km/h (2 Bft) 95,74 %
09.01.2022 19:34 3,3 C 2,2 C 0,6 C 93 % 1006,4 hPa 0,0 l/m 0 min 0 min 0 W/m 6,4 km/h (2 Bft) 97,87 %
09.01.2022 19:36 3,2 C 2,2 C 0,6 C 93 % 1006,4 hPa 0,0 l/m 0 min 0 min 0 W/m 3,2 km/h (1 Bft) 95,74 %
09.01.2022 19:38 3,2 C 2,2 C 0,6 C 94 % 1006,4 hPa 0,0 l/m 0 min 0 min 0 W/m 9,7 km/h (2 Bft) 97,87 %
09.01.2022 19:40 3,2 C 2,2 C 0,6 C 94 % 1006,4 hPa 0,0 l/m 0 min 0 min 0 W/m 3,2 km/h (1 Bft) 100,00 %
09.01.2022 19:42 3,1 C 2,2 C 0,6 C 94 % 1006,5 hPa 0,0 l/m 0 min 0 min 0 W/m 6,4 km/h (2 Bft) 100,00 %
09.01.2022 19:44 3,1 C 1,7 C 0,6 C 94 % 1006,5 hPa 0,0 l/m 0 min 0 min 0 W/m 3,2 km/h (1 Bft) 100,00 %
09.01.2022 19:46 3,1 C 1,7 C 0,6 C 94 % 1006,6 hPa 0,0 l/m 0 min 0 min 0 W/m 3,2 km/h (1 Bft) 100,00 %
09.01.2022 19:48 3,1 C 1,7 C 0,6 C 94 % 1006,6 hPa 0,0 l/m 0 min 0 min 0 W/m 6,4 km/h (2 Bft) 100,00 %
09.01.2022 19:50 3,0 C 1,7 C 0,6 C 94 % 1006,6 hPa 0,0 l/m 0 min 0 min 0 W/m 6,4 km/h (2 Bft) 97,87 %
09.01.2022 19:52 3,0 C 1,7 C 0,6 C 94 % 1006,6 hPa 0,0 l/m 0 min 0 min 0 W/m 6,4 km/h (2 Bft) 97,83 %
09.01.2022 19:54 3,0 C 1,7 C 0,6 C 94 % 1006,6 hPa 0,0 l/m 0 min 0 min 0 W/m 3,2 km/h (1 Bft) 100,00 %
09.01.2022 19:56 2,9 C 1,7 C 0,6 C 94 % 1006,7 hPa 0,0 l/m 0 min 0 min 0 W/m 3,2 km/h (1 Bft) 100,00 %
09.01.2022 19:58 2,9 C 1,7 C 0,6 C 94 % 1006,7 hPa 0,0 l/m 0 min 0 min 0 W/m 3,2 km/h (1 Bft) 97,87 %
09.01.2022 20:00 2,9 C 1,7 C 0,6 C 94 % 1006,7 hPa 0,0 l/m 0 min 0 min 0 W/m 6,4 km/h (2 Bft) 97,87 %
09.01.2022 20:02 2,8 C 1,7 C 0,6 C 94 % 1006,7 hPa 0,0 l/m 0 min 0 min 0 W/m 3,2 km/h (1 Bft) 97,87 %
09.01.2022 20:04 2,8 C 1,7 C 0,6 C 94 % 1006,7 hPa 0,0 l/m 0 min 0 min 0 W/m 3,2 km/h (1 Bft) 97,87 %
09.01.2022 20:06 2,8 C 1,7 C 0,6 C 94 % 1006,8 hPa 0,0 l/m 0 min 0 min 0 W/m 6,4 km/h (2 Bft) 97,83 %
09.01.2022 20:08 2,8 C 1,7 C 0,6 C 94 % 1006,9 hPa 0,0 l/m 0 min 0 min 0 W/m 3,2 km/h (1 Bft) 97,87 %
09.01.2022 20:10 2,8 C 1,7 C 0,6 C 94 % 1006,9 hPa 0,0 l/m 0 min 0 min 0 W/m 6,4 km/h (2 Bft) 97,87 %
09.01.2022 20:12 2,8 C 1,7 C 0,6 C 94 % 1006,9 hPa 0,0 l/m 0 min 0 min 0 W/m 3,2 km/h (1 Bft) 97,87 %
09.01.2022 20:14 2,7 C 1,7 C 0,6 C 94 % 1007,0 hPa 0,0 l/m 0 min 0 min 0 W/m 6,4 km/h (2 Bft) 97,87 %
09.01.2022 20:16 2,7 C 1,7 C 0,6 C 94 % 1007,1 hPa 0,0 l/m 0 min 0 min 0 W/m 3,2 km/h (1 Bft) 97,87 %
09.01.2022 20:18 2,7 C 1,7 C 0,6 C 94 % 1007,1 hPa 0,0 l/m 0 min 0 min 0 W/m 6,4 km/h (2 Bft) 95,65 %
09.01.2022 20:20 2,7 C 1,7 C 0,6 C 94 % 1007,1 hPa 0,0 l/m 0 min 0 min 0 W/m 3,2 km/h (1 Bft) 97,87 %
09.01.2022 20:22 2,7 C 1,7 C 0,6 C 94 % 1007,1 hPa 0,0 l/m 0 min 0 min 0 W/m 6,4 km/h (2 Bft) 95,74 %
09.01.2022 20:24 2,7 C 1,7 C 0,6 C 94 % 1007,1 hPa 0,0 l/m 0 min 0 min 0 W/m 3,2 km/h (1 Bft) 93,62 %
09.01.2022 20:26 2,6 C 1,7 C 0,6 C 94 % 1007,2 hPa 0,0 l/m 0 min 0 min 0 W/m 6,4 km/h (2 Bft) 95,74 %
09.01.2022 20:28 2,6 C 1,7 C 0,6 C 94 % 1007,2 hPa 0,0 l/m 0 min 0 min 0 W/m 3,2 km/h (1 Bft) 95,65 %
09.01.2022 20:30 2,6 C 1,7 C 0,6 C 94 % 1007,2 hPa 0,0 l/m 0 min 0 min 0 W/m 6,4 km/h (2 Bft) 95,92 %
09.01.2022 20:32 2,6 C 1,1 C 0,6 C 94 % 1007,3 hPa 0,0 l/m 0 min 0 min 0 W/m 3,2 km/h (1 Bft) 95,74 %
09.01.2022 20:34 2,6 C 1,1 C 0,6 C 94 % 1007,3 hPa 0,0 l/m 0 min 0 min 0 W/m 3,2 km/h (1 Bft) 97,87 %
09.01.2022 20:36 2,5 C 1,1 C 0,0 C 94 % 1007,3 hPa 0,0 l/m 0 min 0 min 0 W/m 3,2 km/h (1 Bft) 95,74 %
09.01.2022 20:38 2,5 C 1,1 C 0,0 C 94 % 1007,5 hPa 0,0 l/m 0 min 0 min 0 W/m 6,4 km/h (2 Bft) 97,87 %
09.01.2022 20:40 2,5 C 1,7 C 0,0 C 94 % 1007,4 hPa 0,0 l/m 0 min 0 min 0 W/m 6,4 km/h (2 Bft) 95,65 %
09.01.2022 20:42 2,5 C 1,7 C 0,6 C 94 % 1007,5 hPa 0,0 l/m 0 min 0 min 0 W/m 6,4 km/h (2 Bft) 95,74 %
09.01.2022 20:44 2,5 C 1,7 C 0,0 C 94 % 1007,5 hPa 0,0 l/m 0 min 0 min 0 W/m 6,4 km/h (2 Bft) 97,87 %
09.01.2022 20:46 2,5 C 1,7 C 0,0 C 94 % 1007,5 hPa 0,0 l/m 0 min 0 min 0 W/m 6,4 km/h (2 Bft) 95,74 %
09.01.2022 20:48 2,4 C 1,1 C 0,0 C 94 % 1007,6 hPa 0,0 l/m 0 min 0 min 0 W/m 6,4 km/h (2 Bft) 97,87 %
09.01.2022 20:50 2,4 C 1,1 C 0,0 C 94 % 1007,6 hPa 0,0 l/m 0 min 0 min 0 W/m 6,4 km/h (2 Bft) 95,74 %
09.01.2022 20:52 2,4 C 1,1 C 0,0 C 95 % 1007,7 hPa 0,0 l/m 0 min 0 min 0 W/m 3,2 km/h (1 Bft) 95,65 %
09.01.2022 20:54 2,4 C 1,1 C 0,0 C 95 % 1007,7 hPa 0,0 l/m 0 min 0 min 0 W/m 6,4 km/h (2 Bft) 97,87 %
09.01.2022 20:56 2,4 C 1,1 C 0,0 C 95 % 1007,7 hPa 0,0 l/m 0 min 0 min 0 W/m 3,2 km/h (1 Bft) 97,87 %
09.01.2022 20:58 2,4 C 1,1 C 0,0 C 95 % 1007,7 hPa 0,0 l/m 0 min 0 min 0 W/m 3,2 km/h (1 Bft) 93,62 %
09.01.2022 21:00 2,4 C 1,1 C 0,0 C 95 % 1007,7 hPa 0,0 l/m 0 min 0 min 0 W/m 0,0 km/h (0 Bft) 95,74 %
09.01.2022 21:02 2,3 C 1,1 C 0,0 C 95 % 1007,8 hPa 0,0 l/m 0 min 0 min 0 W/m 0,0 km/h (0 Bft) 95,74 %
09.01.2022 21:04 2,3 C 1,1 C 0,0 C 95 % 1007,8 hPa 0,0 l/m 0 min 0 min 0 W/m 0,0 km/h (0 Bft) 93,48 %
09.01.2022 21:06 2,3 C 1,1 C 0,0 C 95 % 1007,8 hPa 0,0 l/m 0 min 0 min 0 W/m 3,2 km/h (1 Bft) 93,62 %
09.01.2022 21:08 2,3 C 1,1 C 0,0 C 95 % 1007,9 hPa 0,0 l/m 0 min 0 min 0 W/m 0,0 km/h (0 Bft) 95,74 %
09.01.2022 21:10 2,3 C 1,1 C 0,0 C 95 % 1007,9 hPa 0,0 l/m 0 min 0 min 0 W/m 3,2 km/h (1 Bft) 93,62 %
09.01.2022 21:12 2,3 C 1,1 C 0,0 C 95 % 1007,9 hPa 0,0 l/m 0 min 0 min 0 W/m 0,0 km/h (0 Bft) 95,74 %
09.01.2022 21:14 2,3 C 1,1 C 0,0 C 95 % 1008,0 hPa 0,0 l/m 0 min 0 min 0 W/m 0,0 km/h (0 Bft) 61,70 %
09.01.2022 21:16 2,3 C 1,1 C 0,0 C 95 % 1008,0 hPa 0,0 l/m 0 min 0 min 0 W/m 0,0 km/h (0 Bft) 86,05 %
09.01.2022 21:18 2,2 C 1,1 C 0,0 C 95 % 1008,0 hPa 0,0 l/m 0 min 0 min 0 W/m 0,0 km/h (0 Bft) 97,87 %
09.01.2022 21:20 2,2 C 1,1 C 0,0 C 95 % 1008,2 hPa 0,0 l/m 0 min 0 min 0 W/m 3,2 km/h (1 Bft) 97,87 %
09.01.2022 21:22 2,2 C 1,1 C 0,0 C 95 % 1008,2 hPa 0,0 l/m 0 min 0 min 0 W/m 3,2 km/h (1 Bft) 93,62 %
09.01.2022 21:24 2,2 C 1,1 C 0,0 C 95 % 1008,2 hPa 0,0 l/m 0 min 0 min 0 W/m 3,2 km/h (1 Bft) 97,87 %
09.01.2022 21:26 2,2 C 1,1 C 0,0 C 95 % 1008,2 hPa 0,0 l/m 0 min 0 min 0 W/m 0,0 km/h (0 Bft) 97,83 %
09.01.2022 21:28 2,2 C 1,1 C 0,0 C 95 % 1008,2 hPa 0,0 l/m 0 min 0 min 0 W/m 0,0 km/h (0 Bft) 97,87 %
09.01.2022 21:30 2,2 C 1,1 C 0,0 C 95 % 1008,2 hPa 0,0 l/m 0 min 0 min 0 W/m 0,0 km/h (0 Bft) 97,87 %
09.01.2022 21:35 2,2 C 1,1 C 0,0 C 95 % 1008,3 hPa 0,0 l/m 0 min 0 min 0 W/m 3,2 km/h (1 Bft) 98,51 %
09.01.2022 21:36 2,1 C 1,1 C 0,0 C 95 % 1008,3 hPa 0,0 l/m 0 min 0 min 0 W/m 0,0 km/h (0 Bft) 100,00 %
09.01.2022 21:38 2,1 C 1,1 C 0,0 C 95 % 1008,3 hPa 0,0 l/m 0 min 0 min 0 W/m 0,0 km/h (0 Bft) 93,62 %
09.01.2022 21:40 2,1 C 1,1 C -0,6 C 95 % 1008,3 hPa 0,0 l/m 0 min 0 min 0 W/m 3,2 km/h (1 Bft) 100,00 %
09.01.2022 21:42 2,1 C 1,1 C 0,0 C 95 % 1008,3 hPa 0,0 l/m 0 min 0 min 0 W/m 0,0 km/h (0 Bft) 100,00 %
09.01.2022 21:44 2,1 C 1,1 C -0,6 C 95 % 1008,3 hPa 0,0 l/m 0 min 0 min 0 W/m 0,0 km/h (0 Bft) 100,00 %
09.01.2022 21:46 2,1 C 1,1 C -0,6 C 95 % 1008,4 hPa 0,0 l/m 0 min 0 min 0 W/m 3,2 km/h (1 Bft) 100,00 %
09.01.2022 21:48 2,1 C 1,1 C -0,6 C 95 % 1008,3 hPa 0,0 l/m 0 min 0 min 0 W/m 3,2 km/h (1 Bft) 100,00 %
09.01.2022 21:50 2,1 C 1,1 C -0,6 C 95 % 1008,4 hPa 0,0 l/m 0 min 0 min 0 W/m 0,0 km/h (0 Bft) 100,00 %
09.01.2022 21:52 2,0 C 0,6 C -0,6 C 95 % 1008,4 hPa 0,0 l/m 0 min 0 min 0 W/m 0,0 km/h (0 Bft) 97,83 %
09.01.2022 21:54 2,0 C 0,6 C -0,6 C 95 % 1008,4 hPa 0,0 l/m 0 min 0 min 0 W/m 0,0 km/h (0 Bft) 100,00 %
09.01.2022 21:56 1,9 C 0,6 C -0,6 C 95 % 1008,4 hPa 0,0 l/m 0 min 0 min 0 W/m 0,0 km/h (0 Bft) 100,00 %
09.01.2022 21:58 1,9 C 0,6 C -0,6 C 95 % 1008,4 hPa 0,0 l/m 0 min 0 min 0 W/m 0,0 km/h (0 Bft) 100,00 %
09.01.2022 22:00 1,9 C 0,6 C -0,6 C 95 % 1008,4 hPa 0,0 l/m 0 min 0 min 0 W/m 0,0 km/h (0 Bft) 97,87 %
09.01.2022 22:02 1,9 C 0,6 C -0,6 C 95 % 1008,4 hPa 0,0 l/m 0 min 0 min 0 W/m 0,0 km/h (0 Bft) 53,33 %
09.01.2022 22:04 1,9 C 0,6 C -0,6 C 95 % 1008,4 hPa 0,0 l/m 0 min 0 min 0 W/m 0,0 km/h (0 Bft) 97,87 %
09.01.2022 22:06 1,8 C 0,6 C -0,6 C 95 % 1008,5 hPa 0,0 l/m 0 min 0 min 0 W/m 3,2 km/h (1 Bft) 95,74 %
09.01.2022 22:08 1,8 C 0,6 C -0,6 C 95 % 1008,5 hPa 0,0 l/m 0 min 0 min 0 W/m 3,2 km/h (1 Bft) 95,74 %
09.01.2022 22:10 1,8 C 0,6 C -0,6 C 95 % 1008,5 hPa 0,0 l/m 0 min 0 min 0 W/m 0,0 km/h (0 Bft) 97,87 %
09.01.2022 22:12 1,8 C 0,6 C -0,6 C 95 % 1008,6 hPa 0,0 l/m 0 min 0 min 0 W/m 3,2 km/h (1 Bft) 97,87 %
09.01.2022 22:14 1,8 C 0,6 C -0,6 C 95 % 1008,6 hPa 0,0 l/m 0 min 0 min 0 W/m 3,2 km/h (1 Bft) 97,83 %
09.01.2022 22:16 1,8 C 0,6 C -0,6 C 95 % 1008,7 hPa 0,0 l/m 0 min 0 min 0 W/m 6,4 km/h (2 Bft) 97,87 %
09.01.2022 22:18 1,8 C 1,1 C -0,6 C 95 % 1008,6 hPa 0,0 l/m 0 min 0 min 0 W/m 6,4 km/h (2 Bft) 97,87 %
09.01.2022 22:20 1,8 C 1,1 C -0,6 C 95 % 1008,8 hPa 0,0 l/m 0 min 0 min 0 W/m 3,2 km/h (1 Bft) 97,87 %
09.01.2022 22:22 1,8 C 1,1 C -0,6 C 95 % 1008,8 hPa 0,0 l/m 0 min 0 min 0 W/m 3,2 km/h (1 Bft) 97,87 %
09.01.2022 22:24 1,8 C 1,1 C -0,6 C 95 % 1008,8 hPa 0,0 l/m 0 min 0 min 0 W/m 3,2 km/h (1 Bft) 95,74 %
09.01.2022 22:26 1,8 C 1,1 C -0,6 C 96 % 1008,9 hPa 0,0 l/m 0 min 0 min 0 W/m 6,4 km/h (2 Bft) 95,65 %
09.01.2022 22:28 1,8 C 1,1 C -0,6 C 96 % 1008,9 hPa 0,0 l/m 0 min 0 min 0 W/m 6,4 km/h (2 Bft) 97,87 %
09.01.2022 22:30 1,8 C 1,1 C -0,6 C 96 % 1008,9 hPa 0,0 l/m 0 min 0 min 0 W/m 3,2 km/h (1 Bft) 97,87 %
09.01.2022 22:32 1,8 C 1,1 C -0,6 C 96 % 1009,0 hPa 0,0 l/m 0 min 0 min 0 W/m 3,2 km/h (1 Bft) 97,87 %
09.01.2022 22:34 1,8 C 1,1 C -0,6 C 95 % 1009,1 hPa 0,0 l/m 0 min 0 min 0 W/m 3,2 km/h (1 Bft) 100,00 %
09.01.2022 22:36 1,8 C 1,1 C -0,6 C 95 % 1009,1 hPa 0,0 l/m 0 min 0 min 0 W/m 3,2 km/h (1 Bft) 100,00 %
09.01.2022 22:38 1,8 C 1,1 C 0,0 C 95 % 1009,1 hPa 0,0 l/m 0 min 0 min 0 W/m 6,4 km/h (2 Bft) 100,00 %
09.01.2022 22:40 1,8 C 1,1 C -0,6 C 95 % 1009,1 hPa 0,0 l/m 0 min 0 min 0 W/m 3,2 km/h (1 Bft) 100,00 %
09.01.2022 22:42 1,8 C 0,6 C -0,6 C 96 % 1009,1 hPa 0,0 l/m 0 min 0 min 0 W/m 0,0 km/h (0 Bft) 97,87 %
09.01.2022 22:44 1,8 C 0,6 C -0,6 C 96 % 1009,2 hPa 0,0 l/m 0 min 0 min 0 W/m 3,2 km/h (1 Bft) 100,00 %
09.01.2022 22:46 1,8 C 0,6 C -0,6 C 96 % 1009,2 hPa 0,0 l/m 0 min 0 min 0 W/m 3,2 km/h (1 Bft) 97,87 %
09.01.2022 22:48 1,8 C 0,6 C -0,6 C 96 % 1009,3 hPa 0,0 l/m 0 min 0 min 0 W/m 3,2 km/h (1 Bft) 97,87 %
09.01.2022 22:50 1,8 C 0,6 C -0,6 C 96 % 1009,3 hPa 0,0 l/m 0 min 0 min 0 W/m 0,0 km/h (0 Bft) 95,65 %
09.01.2022 22:52 1,8 C 0,6 C -0,6 C 96 % 1009,3 hPa 0,0 l/m 0 min 0 min 0 W/m 3,2 km/h (1 Bft) 97,87 %
09.01.2022 22:54 1,7 C 0,6 C -0,6 C 96 % 1009,4 hPa 0,0 l/m 0 min 0 min 0 W/m 3,2 km/h (1 Bft) 100,00 %
09.01.2022 22:56 1,7 C 0,6 C -0,6 C 96 % 1009,4 hPa 0,0 l/m 0 min 0 min 0 W/m 3,2 km/h (1 Bft) 97,87 %
09.01.2022 22:58 1,7 C 0,6 C -0,6 C 96 % 1009,3 hPa 0,0 l/m 0 min 0 min 0 W/m 3,2 km/h (1 Bft) 97,87 %
09.01.2022 23:00 1,7 C 0,6 C -0,6 C 96 % 1009,4 hPa 0,0 l/m 0 min 0 min 0 W/m 3,2 km/h (1 Bft) 97,87 %
09.01.2022 23:02 1,7 C 0,6 C -0,6 C 96 % 1009,4 hPa 0,0 l/m 0 min 0 min 0 W/m 3,2 km/h (1 Bft) 97,83 %
09.01.2022 23:04 1,7 C 0,6 C 0,0 C 96 % 1009,5 hPa 0,0 l/m 0 min 0 min 0 W/m 3,2 km/h (1 Bft) 97,87 %
09.01.2022 23:06 1,7 C 0,6 C -0,6 C 96 % 1009,5 hPa 0,0 l/m 0 min 0 min 0 W/m 3,2 km/h (1 Bft) 97,87 %
09.01.2022 23:08 1,7 C 0,6 C -0,6 C 96 % 1009,6 hPa 0,0 l/m 0 min 0 min 0 W/m 3,2 km/h (1 Bft) 97,87 %
09.01.2022 23:10 1,7 C 0,6 C -0,6 C 96 % 1009,6 hPa 0,0 l/m 0 min 0 min 0 W/m 3,2 km/h (1 Bft) 95,74 %
09.01.2022 23:12 1,7 C 0,6 C -0,6 C 96 % 1009,6 hPa 0,0 l/m 0 min 0 min 0 W/m 3,2 km/h (1 Bft) 97,87 %
09.01.2022 23:14 1,7 C 0,6 C -0,6 C 96 % 1009,7 hPa 0,0 l/m 0 min 0 min 0 W/m 3,2 km/h (1 Bft) 97,83 %
09.01.2022 23:16 1,7 C 0,6 C -0,6 C 96 % 1009,7 hPa 0,0 l/m 0 min 0 min 0 W/m 3,2 km/h (1 Bft) 100,00 %
09.01.2022 23:18 1,7 C 0,6 C -0,6 C 96 % 1009,7 hPa 0,0 l/m 0 min 0 min 0 W/m 3,2 km/h (1 Bft) 100,00 %
09.01.2022 23:20 1,7 C 0,6 C -0,6 C 96 % 1009,7 hPa 0,0 l/m 0 min 0 min 0 W/m 3,2 km/h (1 Bft) 100,00 %
09.01.2022 23:22 1,7 C 0,6 C -0,6 C 96 % 1009,8 hPa 0,0 l/m 0 min 0 min 0 W/m 3,2 km/h (1 Bft) 100,00 %
09.01.2022 23:24 1,7 C 0,6 C -0,6 C 96 % 1009,8 hPa 0,0 l/m 0 min 0 min 0 W/m 3,2 km/h (1 Bft) 100,00 %
09.01.2022 23:26 1,7 C 0,6 C -0,6 C 96 % 1009,9 hPa 0,0 l/m 0 min 0 min 0 W/m 0,0 km/h (0 Bft) 100,00 %
09.01.2022 23:28 1,7 C 0,6 C -0,6 C 96 % 1009,9 hPa 0,0 l/m 0 min 0 min 0 W/m 3,2 km/h (1 Bft) 100,00 %
09.01.2022 23:30 1,6 C 0,6 C -0,6 C 96 % 1009,9 hPa 0,0 l/m 0 min 0 min 0 W/m 0,0 km/h (0 Bft) 100,00 %
09.01.2022 23:32 1,6 C 0,6 C -0,6 C 96 % 1009,9 hPa 0,0 l/m 0 min 0 min 0 W/m 0,0 km/h (0 Bft) 100,00 %
09.01.2022 23:34 1,6 C 0,6 C -0,6 C 96 % 1010,0 hPa 0,0 l/m 0 min 0 min 0 W/m 0,0 km/h (0 Bft) 95,74 %
09.01.2022 23:36 1,6 C 0,0 C -0,6 C 96 % 1010,0 hPa 0,0 l/m 0 min 0 min 0 W/m 0,0 km/h (0 Bft) 97,87 %
09.01.2022 23:38 1,6 C 0,0 C -1,1 C 96 % 1010,0 hPa 0,0 l/m 0 min 0 min 0 W/m 0,0 km/h (0 Bft) 100,00 %
09.01.2022 23:40 1,6 C 0,0 C -1,1 C 96 % 1010,0 hPa 0,0 l/m 0 min 0 min 0 W/m 0,0 km/h (0 Bft) 100,00 %
09.01.2022 23:42 1,5 C 0,0 C -1,1 C 96 % 1010,0 hPa 0,0 l/m 0 min 0 min 0 W/m 3,2 km/h (1 Bft) 97,87 %
09.01.2022 23:44 1,4 C 0,0 C -1,1 C 96 % 1010,0 hPa 0,0 l/m 0 min 0 min 0 W/m 0,0 km/h (0 Bft) 95,74 %
09.01.2022 23:46 1,4 C 0,0 C -1,1 C 96 % 1010,1 hPa 0,0 l/m 0 min 0 min 0 W/m 3,2 km/h (1 Bft) 97,87 %
09.01.2022 23:48 1,4 C 0,0 C -1,1 C 96 % 1010,1 hPa 0,0 l/m 0 min 0 min 0 W/m 0,0 km/h (0 Bft) 95,74 %
09.01.2022 23:50 1,4 C 0,0 C -1,1 C 96 % 1010,1 hPa 0,0 l/m 0 min 0 min 0 W/m 0,0 km/h (0 Bft) 95,74 %
09.01.2022 23:52 1,3 C -0,6 C -1,1 C 96 % 1010,2 hPa 0,0 l/m 0 min 0 min 0 W/m 0,0 km/h (0 Bft) 95,65 %
09.01.2022 23:54 1,3 C -0,6 C -1,1 C 96 % 1010,1 hPa 0,0 l/m 0 min 0 min 0 W/m 0,0 km/h (0 Bft) 97,87 %
09.01.2022 23:56 1,3 C -0,6 C -1,7 C 96 % 1010,2 hPa 0,0 l/m 0 min 0 min 0 W/m 0,0 km/h (0 Bft) 95,74 %
09.01.2022 23:58 1,2 C -0,6 C -1,7 C 96 % 1010,2 hPa 0,0 l/m 0 min 0 min 0 W/m 0,0 km/h (0 Bft) 95,74 %
_ Min-Zeit 23:58 23:52 23:56 13:42 01:58 - - - - 18:34 04:06
Minimum _ 1,2 C -0,6 C -1,7 C 89 % 988,1 hPa - - - - 0,0 km/h (0 Bft) 16,67 %
_ Max-Zeit 14:18 14:20 12:56 01:46 23:52 00:04 10:12 04:05 14:12 04:24 01:20
Maximum _ 6,1 C 9,4 C 3,9 C 98 % 1010,2 hPa 0,2 l/m 2 min 5 min 296 W/m 54,7 km/h
NO (7 Bft)
100,00 %
Durchschnitt _ 4,2 C 3,7 C 2,1 C 94 % 999,8 hPa #8,8 l/m #1:32 h #6:12 h 81 W/m 13,6 km/h (3 Bft) 96,83 %
© 2022 W. Hausmann